Latitude: N 50° 09' 49" Longitude: W 05° 11' 53" Elevation: 168m ASL

There are 24 visitors online

Adverts

<- Previous Day | Today | Next Day ->

All Data for 20 August 2019

Time
A - D
Temp
A - D
Dew Point
A - D
Humidity
A - D
Pressure
A - D
Wind
A - D
Wind Dir Gust
A - D
Rain Rate
A - D
Rain Total
00:00 11.5 7.8 78 1021.6 3.8 W 4.5 0.0 0.0
00:02 11.5 8.0 79 1021.7 3.8 WSW 4.5 0.0 0.0
00:03 11.5 8.0 79 1021.7 3.8 SW 4.5 0.0 0.0
00:04 11.5 8.0 79 1021.8 4.5 SW 4.5 0.0 0.0
00:05 11.5 8.0 79 1021.8 4.5 W 4.5 0.0 0.0
00:06 11.6 8.1 79 1021.9 2.2 SW 4.5 0.0 0.0
00:07 11.6 8.1 79 1021.8 3.8 SW 4.5 0.0 0.0
00:08 11.6 8.1 79 1021.7 4.5 SW 4.5 0.0 0.0
00:09 11.6 8.1 79 1021.7 4.5 SW 4.5 0.0 0.0
00:10 11.6 8.1 79 1021.8 4.5 SW 4.5 0.0 0.0
00:11 11.6 8.1 79 1021.8 3.1 WNW 4.5 0.0 0.0
00:12 11.6 8.1 79 1021.9 3.8 W 4.5 0.0 0.0
00:13 11.6 8.1 79 1021.7 6.0 SW 6.0 0.0 0.0
00:14 11.6 8.1 79 1021.9 4.5 SW 6.0 0.0 0.0
00:15 11.6 8.1 79 1021.9 5.4 W 6.0 0.0 0.0
00:16 11.6 8.1 79 1022.0 3.8 SW 6.0 0.0 0.0
00:17 11.6 8.1 79 1021.9 3.8 SW 6.0 0.0 0.0
00:18 11.6 8.1 79 1021.8 3.8 SW 6.0 0.0 0.0
00:19 11.6 8.1 79 1021.9 3.8 SW 6.0 0.0 0.0
00:21 11.7 8.4 80 1022.0 3.1 SW 6.0 0.0 0.0
00:22 11.7 8.4 80 1021.9 2.2 SW 6.0 0.0 0.0
00:23 11.7 8.4 80 1021.8 2.2 SW 5.4 0.0 0.0
00:24 11.7 8.4 80 1021.8 2.2 SW 5.4 0.0 0.0
00:25 11.7 8.4 80 1021.8 3.1 SW 5.4 0.0 0.0
00:26 11.7 8.4 80 1022.0 2.2 SW 3.8 0.0 0.0
00:27 11.7 8.4 80 1022.0 3.1 SW 3.8 0.0 0.0
00:28 11.7 8.4 80 1021.9 3.8 SW 3.8 0.0 0.0
00:29 11.7 8.4 80 1022.0 3.8 SW 3.8 0.0 0.0
00:30 11.7 8.4 80 1021.9 3.8 SW 3.8 0.0 0.0
00:31 11.7 8.4 80 1022.0 3.8 SW 3.8 0.0 0.0
00:32 11.7 8.4 80 1021.8 3.1 SW 3.8 0.0 0.0
00:33 11.7 8.4 80 1021.9 3.1 SW 3.8 0.0 0.0
00:34 11.7 8.4 80 1021.8 3.1 SW 3.8 0.0 0.0
00:35 11.7 8.4 80 1021.9 3.1 SW 3.8 0.0 0.0
00:36 11.7 8.4 80 1021.9 2.2 SW 3.8 0.0 0.0
00:37 11.7 8.4 80 1022.0 3.8 SW 3.8 0.0 0.0
00:38 11.7 8.4 80 1021.9 3.1 SW 3.8 0.0 0.0
00:39 11.7 8.4 80 1021.9 2.2 SW 3.8 0.0 0.0
00:41 11.7 8.4 80 1022.0 3.1 SW 3.8 0.0 0.0
00:42 11.7 8.4 80 1022.0 2.2 SW 3.8 0.0 0.0
00:43 11.7 8.4 80 1022.0 2.2 SW 3.8 0.0 0.0
00:44 11.7 8.4 80 1021.9 2.2 SW 3.8 0.0 0.0
00:45 11.7 8.4 80 1021.9 3.1 SW 3.8 0.0 0.0
00:46 11.7 8.4 80 1022.0 3.1 SW 3.8 0.0 0.0
00:47 11.7 8.4 80 1021.9 3.8 SW 3.8 0.0 0.0
00:48 11.7 8.4 80 1021.7 3.8 SW 3.8 0.0 0.0
00:49 11.6 8.3 80 1022.0 3.1 SW 3.8 0.0 0.0
00:50 11.6 8.3 80 1021.9 3.1 SW 3.8 0.0 0.0
00:51 11.6 8.3 80 1021.9 3.1 SW 3.8 0.0 0.0
00:52 11.6 8.3 80 1021.9 3.1 SW 3.8 0.0 0.0
00:53 11.6 8.3 80 1021.8 3.8 SW 3.8 0.0 0.0
00:54 11.6 8.3 80 1022.0 2.2 SW 3.8 0.0 0.0
00:55 11.6 8.3 80 1021.8 2.2 SW 3.8 0.0 0.0
00:56 11.6 8.3 80 1022.0 3.8 SW 3.8 0.0 0.0
00:57 11.6 8.3 80 1021.8 2.2 SW 3.8 0.0 0.0
00:59 11.6 8.3 80 1021.9 3.1 SW 3.8 0.0 0.0
01:00 11.6 8.3 80 1021.9 2.2 SW 3.8 0.0 0.0
01:01 11.5 8.2 80 1021.8 2.2 SW 3.8 0.0 0.0
01:02 11.5 8.2 80 1021.9 2.2 SW 3.8 0.0 0.0
01:03 11.5 8.2 80 1021.9 3.1 SW 3.8 0.0 0.0
01:04 11.5 8.2 80 1021.9 3.1 SW 3.8 0.0 0.0
01:05 11.5 8.2 80 1021.8 2.2 SW 3.8 0.0 0.0
01:06 11.5 8.2 80 1022.0 2.2 SW 3.8 0.0 0.0
01:07 11.5 8.2 80 1022.0 3.1 SW 3.1 0.0 0.0
01:08 11.5 8.2 80 1022.0 2.2 SW 3.1 0.0 0.0
01:09 11.5 8.2 80 1022.0 2.2 SW 3.1 0.0 0.0
01:10 11.5 8.2 80 1021.9 3.1 SW 3.1 0.0 0.0
01:11 11.5 8.2 80 1021.9 2.2 SW 3.1 0.0 0.0
01:12 11.5 8.2 80 1022.0 3.1 SW 3.1 0.0 0.0
01:13 11.5 8.2 80 1022.0 1.6 SW 3.1 0.0 0.0
01:14 11.5 8.2 80 1022.0 3.1 SW 3.1 0.0 0.0
01:15 11.4 8.1 80 1021.8 3.1 SW 3.1 0.0 0.0
01:21 11.5 8.2 80 1022.0 1.6 SW 3.1 0.0 0.0
01:22 11.5 8.2 80 1022.0 1.6 SW 3.1 0.0 0.0
01:23 11.4 8.3 81 1022.0 2.2 SW 3.1 0.0 0.0
01:24 11.4 8.3 81 1022.0 2.2 SW 3.1 0.0 0.0
01:25 11.4 8.3 81 1021.9 1.6 SW 3.1 0.0 0.0
01:26 11.4 8.3 81 1021.9 2.2 SW 3.1 0.0 0.0
01:27 11.4 8.3 81 1022.0 3.1 SW 3.1 0.0 0.0
01:28 11.4 8.3 81 1021.9 3.1 SW 3.1 0.0 0.0
01:29 11.4 8.3 81 1021.9 3.8 SW 3.8 0.0 0.0
01:30 11.4 8.3 81 1021.8 2.2 SW 3.8 0.0 0.0
01:31 11.4 8.3 81 1022.0 1.6 SW 3.8 0.0 0.0
01:32 11.4 8.3 81 1021.9 3.1 SW 3.8 0.0 0.0
01:33 11.4 8.3 81 1022.1 3.8 SW 3.8 0.0 0.0
01:34 11.4 8.3 81 1022.0 3.1 SW 3.8 0.0 0.0
01:35 11.4 8.3 81 1022.0 3.1 SW 3.8 0.0 0.0
01:36 11.4 8.3 81 1022.0 2.2 SW 3.8 0.0 0.0
01:37 11.4 8.3 81 1022.0 2.2 SW 3.8 0.0 0.0
01:39 11.4 8.3 81 1022.0 3.8 SW 3.8 0.0 0.0
01:40 11.4 8.3 81 1022.1 3.1 SW 3.8 0.0 0.0
01:41 11.4 8.3 81 1022.0 3.1 SW 3.8 0.0 0.0
01:42 11.4 8.3 81 1022.1 3.1 SW 3.8 0.0 0.0
01:43 11.4 8.3 81 1022.0 3.1 SW 3.8 0.0 0.0
01:44 11.5 8.4 81 1022.1 2.2 SW 3.8 0.0 0.0
01:45 11.4 8.3 81 1022.1 3.8 SW 3.8 0.0 0.0
01:46 11.4 8.3 81 1021.9 3.1 SW 3.8 0.0 0.0
01:47 11.5 8.4 81 1021.9 3.1 SW 3.8 0.0 0.0
01:48 11.5 8.4 81 1022.0 4.5 W 4.5 0.0 0.0
01:49 11.5 8.4 81 1022.0 5.4 W 5.4 0.0 0.0
01:50 11.5 8.4 81 1021.9 3.8 W 5.4 0.0 0.0
01:51 11.5 8.4 81 1021.9 3.8 W 5.4 0.0 0.0
01:52 11.5 8.4 81 1022.0 3.8 W 5.4 0.0 0.0
01:53 11.6 8.5 81 1021.9 2.2 W 5.4 0.0 0.0
01:54 11.6 8.5 81 1021.8 3.1 SW 5.4 0.0 0.0
01:55 11.6 8.6 82 1021.9 3.1 W 5.4 0.0 0.0
01:56 11.6 8.5 81 1021.9 2.2 NW 5.4 0.0 0.0
01:58 11.6 8.6 82 1021.9 2.2 W 5.4 0.0 0.0
01:59 11.6 8.6 82 1021.8 3.1 W 5.4 0.0 0.0
02:00 11.6 8.6 82 1021.9 2.2 W 3.8 0.0 0.0
02:01 11.6 8.6 82 1022.0 3.8 W 3.8 0.0 0.0
02:02 11.6 8.6 82 1022.0 3.1 W 3.8 0.0 0.0
02:03 11.6 8.6 82 1022.0 3.1 WSW 3.8 0.0 0.0
02:04 11.6 8.6 82 1021.9 3.8 W 3.8 0.0 0.0
02:05 11.6 8.6 82 1022.0 3.8 WSW 3.8 0.0 0.0
02:06 11.6 8.6 82 1022.0 3.1 W 3.8 0.0 0.0
02:07 11.6 8.6 82 1022.0 2.2 W 4.5 0.0 0.0
02:08 11.6 8.6 82 1022.0 3.1 W 4.5 0.0 0.0
02:09 11.7 8.7 82 1021.9 3.1 W 4.5 0.0 0.0
02:10 11.7 8.7 82 1021.9 3.8 WNW 4.5 0.0 0.0
02:11 11.7 8.7 82 1022.0 3.1 W 4.5 0.0 0.0
02:12 11.7 8.7 82 1022.0 4.5 W 4.5 0.0 0.0
02:13 11.7 8.7 82 1022.0 3.1 W 4.5 0.0 0.0
02:14 11.7 8.7 82 1021.9 3.1 W 4.5 0.0 0.0
02:15 11.7 8.7 82 1021.9 3.1 W 4.5 0.0 0.0
02:17 11.7 8.7 82 1022.0 3.8 SW 4.5 0.0 0.0
02:18 11.7 8.7 82 1022.0 3.8 SW 4.5 0.0 0.0
02:19 11.7 8.7 82 1021.8 3.8 SW 4.5 0.0 0.0
02:20 11.7 8.7 82 1022.1 3.8 SW 4.5 0.0 0.0
02:21 11.7 8.7 82 1022.1 3.8 SW 4.5 0.0 0.0
02:22 11.7 8.7 82 1022.1 3.8 SW 4.5 0.0 0.0
02:23 11.7 8.7 82 1022.0 3.8 SW 3.8 0.0 0.0
02:24 11.7 8.7 82 1021.9 3.8 SW 3.8 0.0 0.0
02:25 11.7 8.7 82 1022.0 3.8 SW 3.8 0.0 0.0
02:26 11.7 8.7 82 1021.9 3.8 W 3.8 0.0 0.0
02:27 11.7 8.7 82 1021.9 3.1 W 3.8 0.0 0.0
02:28 11.7 8.7 82 1021.9 3.1 W 3.8 0.0 0.0
02:29 11.7 8.7 82 1022.0 2.2 W 3.8 0.0 0.0
02:30 11.7 8.7 82 1021.9 2.2 W 3.8 0.0 0.0
02:31 11.7 8.7 82 1022.0 0.7 W 3.8 0.0 0.0
02:32 11.7 8.7 82 1021.9 2.2 W 3.8 0.0 0.0
02:33 11.7 8.7 82 1021.9 1.6 W 3.8 0.0 0.0
02:34 11.7 8.7 82 1021.8 1.6 W 3.8 0.0 0.0
02:36 11.7 8.7 82 1022.0 3.8 W 3.8 0.0 0.0
02:37 11.7 8.7 82 1022.0 2.2 W 3.8 0.0 0.0
02:38 11.7 8.7 82 1022.0 3.8 W 3.8 0.0 0.0
02:39 11.7 8.7 82 1021.9 2.2 W 3.8 0.0 0.0
02:40 11.7 8.7 82 1022.0 3.1 W 3.8 0.0 0.0
02:41 11.7 8.7 82 1022.0 2.2 W 3.8 0.0 0.0
02:42 11.7 8.7 82 1021.9 2.2 W 3.8 0.0 0.0
02:43 11.7 8.7 82 1022.0 2.2 W 3.8 0.0 0.0
02:44 11.7 8.7 82 1022.0 3.1 W 3.8 0.0 0.0
02:45 11.7 8.7 82 1022.0 3.1 W 3.8 0.0 0.0
02:46 11.7 8.7 82 1021.8 3.1 W 3.8 0.0 0.0
02:47 11.7 8.7 82 1022.0 3.1 W 3.8 0.0 0.0
02:48 11.7 8.7 82 1022.0 2.2 W 3.8 0.0 0.0
02:49 11.7 8.7 82 1022.0 2.2 W 3.1 0.0 0.0
02:50 11.7 8.7 82 1022.0 3.1 W 3.1 0.0 0.0
02:51 11.7 8.7 82 1022.1 2.2 W 3.1 0.0 0.0
02:52 11.7 8.7 82 1022.1 3.1 W 3.1 0.0 0.0
02:54 11.7 8.7 82 1022.0 3.1 W 3.1 0.0 0.0
02:55 11.7 8.7 82 1021.9 3.1 W 3.1 0.0 0.0
02:56 11.7 8.7 82 1021.8 2.2 W 3.1 0.0 0.0
02:57 11.7 8.7 82 1021.8 1.6 W 3.1 0.0 0.0
02:58 11.6 8.6 82 1022.0 3.8 W 3.8 0.0 0.0
02:59 11.7 8.7 82 1022.0 3.1 W 3.8 0.0 0.0
03:00 11.7 8.7 82 1022.1 3.1 W 3.8 0.0 0.0
03:01 11.7 8.7 82 1021.9 3.1 W 3.8 0.0 0.0
03:02 11.7 8.7 82 1022.0 2.2 W 3.8 0.0 0.0
03:03 11.7 8.7 82 1022.0 2.2 W 3.8 0.0 0.0
03:04 11.7 8.7 82 1022.0 2.2 W 3.8 0.0 0.0
03:05 11.7 8.7 82 1022.0 2.2 W 3.8 0.0 0.0
03:06 11.7 8.7 82 1022.1 4.5 W 4.5 0.0 0.0
03:07 11.7 8.7 82 1022.1 3.8 W 4.5 0.0 0.0
03:08 11.7 8.7 82 1022.0 3.8 W 4.5 0.0 0.0
03:09 11.7 8.7 82 1022.0 2.2 W 4.5 0.0 0.0
03:10 11.7 8.7 82 1022.0 3.1 W 4.5 0.0 0.0
03:11 11.7 8.7 82 1022.0 3.8 W 4.5 0.0 0.0
03:12 11.7 8.7 82 1022.0 3.1 W 4.5 0.0 0.0
03:14 11.7 8.7 82 1022.0 2.2 WSW 4.5 0.0 0.0
03:15 11.7 8.7 82 1022.0 3.8 WSW 4.5 0.0 0.0
03:16 11.7 8.7 82 1022.1 2.2 WSW 4.5 0.0 0.0
03:17 11.7 8.7 82 1022.1 1.6 WSW 3.8 0.0 0.0
03:18 11.7 8.7 82 1022.1 3.8 W 3.8 0.0 0.0
03:19 11.7 8.7 82 1022.1 3.1 W 3.8 0.0 0.0
03:20 11.7 8.7 82 1022.0 3.1 W 3.8 0.0 0.0
03:21 11.7 8.7 82 1022.2 2.2 W 3.8 0.0 0.0
03:22 11.7 8.7 82 1022.1 3.1 SW 3.8 0.0 0.0
03:23 11.7 8.7 82 1022.2 5.4 W 5.4 0.0 0.0
03:24 11.7 8.7 82 1022.1 3.8 W 5.4 0.0 0.0
03:25 11.7 8.7 82 1022.2 2.2 W 5.4 0.0 0.0
03:26 11.7 8.7 82 1022.2 3.1 WNW 5.4 0.0 0.0
03:27 11.7 8.7 82 1022.2 3.1 W 5.4 0.0 0.0
03:28 11.7 8.7 82 1022.2 4.5 W 5.4 0.0 0.0
03:29 11.7 8.7 82 1022.1 3.8 SW 5.4 0.0 0.0
03:30 11.7 8.7 82 1022.2 4.5 W 5.4 0.0 0.0
03:31 11.7 8.7 82 1022.2 3.1 WSW 5.4 0.0 0.0
03:32 11.7 8.7 82 1022.0 3.1 SW 5.4 0.0 0.0
03:33 11.7 8.7 82 1022.2 3.8 W 4.5 0.0 0.0
03:34 11.7 8.7 82 1022.4 4.5 SW 4.5 0.0 0.0
03:35 11.7 8.7 82 1022.2 3.8 WSW 4.5 0.0 0.0
03:36 11.7 8.7 82 1022.1 3.1 SW 4.5 0.0 0.0
03:37 11.7 8.7 82 1022.2 2.2 SW 4.5 0.0 0.0
03:38 11.7 8.7 82 1022.1 2.2 SW 4.5 0.0 0.0
03:40 11.7 8.7 82 1022.1 3.1 SW 4.5 0.0 0.0
03:41 11.7 8.7 82 1022.3 3.1 W 4.5 0.0 0.0
03:42 11.7 8.7 82 1022.3 3.1 W 4.5 0.0 0.0
03:43 11.7 8.7 82 1022.2 4.5 WSW 4.5 0.0 0.0
03:44 11.7 8.7 82 1022.2 3.1 WSW 4.5 0.0 0.0
03:45 11.7 8.7 82 1022.3 3.1 SW 4.5 0.0 0.0
03:46 11.7 8.7 82 1022.3 4.5 W 4.5 0.0 0.0
03:47 11.7 8.7 82 1022.3 4.5 W 4.5 0.0 0.0
03:48 11.7 8.7 82 1022.1 4.5 W 4.5 0.0 0.0
03:49 11.7 8.7 82 1022.4 3.8 W 4.5 0.0 0.0
03:50 11.7 8.7 82 1022.1 3.1 W 4.5 0.0 0.0
03:51 11.7 8.7 82 1022.2 3.1 W 4.5 0.0 0.0
03:52 11.7 8.7 82 1022.3 3.8 SW 4.5 0.0 0.0
03:53 11.7 8.7 82 1022.3 3.1 WSW 4.5 0.0 0.0
03:54 11.7 8.7 82 1022.2 3.1 W 4.5 0.0 0.0
03:55 11.7 8.7 82 1022.3 1.6 W 4.5 0.0 0.0
03:56 11.7 8.7 82 1022.3 3.1 W 4.5 0.0 0.0
03:57 11.7 8.7 82 1022.2 3.1 W 4.5 0.0 0.0
03:58 11.7 8.7 82 1022.3 3.1 W 4.5 0.0 0.0
04:00 11.7 8.7 82 1022.2 3.8 W 4.5 0.0 0.0
04:01 11.7 8.7 82 1022.3 3.8 W 4.5 0.0 0.0
04:02 11.7 8.7 82 1022.2 3.8 W 3.8 0.0 0.0
04:03 11.7 8.7 82 1022.3 3.8 W 3.8 0.0 0.0
04:04 11.7 8.7 82 1022.2 3.8 W 3.8 0.0 0.0
04:05 11.7 8.7 82 1022.2 3.8 W 3.8 0.0 0.0
04:06 11.7 8.7 82 1022.1 2.2 SW 3.8 0.0 0.0
04:07 11.7 8.7 82 1022.3 3.1 SW 3.8 0.0 0.0
04:08 11.7 8.7 82 1022.3 3.1 W 3.8 0.0 0.0
04:09 11.7 8.7 82 1022.2 3.1 W 3.8 0.0 0.0
04:10 11.7 8.7 82 1022.3 3.1 W 3.8 0.0 0.0
04:11 11.7 8.7 82 1022.5 3.8 NW 3.8 0.0 0.0
04:12 11.7 8.7 82 1022.1 3.8 SW 3.8 0.0 0.0
04:13 11.7 8.7 82 1022.3 3.1 W 3.8 0.0 0.0
04:14 11.7 8.7 82 1022.3 3.1 W 3.8 0.0 0.0
04:16 11.7 8.7 82 1022.2 3.8 W 3.8 0.0 0.0
04:17 11.7 8.7 82 1022.3 4.5 W 4.5 0.0 0.0
04:18 11.7 8.7 82 1022.2 3.1 SW 4.5 0.0 0.0
04:20 11.7 8.7 82 1022.3 3.1 SW 4.5 0.0 0.0
04:21 11.7 8.7 82 1022.4 3.1 W 4.5 0.0 0.0
04:22 11.7 8.7 82 1022.3 3.1 SW 4.5 0.0 0.0
04:23 11.7 8.7 82 1022.5 4.5 W 4.5 0.0 0.0
04:24 11.8 8.8 82 1022.3 3.1 W 4.5 0.0 0.0
04:25 11.8 8.8 82 1022.4 2.2 W 4.5 0.0 0.0
04:26 11.8 8.8 82 1022.4 3.1 W 4.5 0.0 0.0
04:27 11.8 8.8 82 1022.5 3.1 W 4.5 0.0 0.0
04:28 11.8 8.8 82 1022.4 2.2 W 4.5 0.0 0.0
04:29 11.8 8.8 82 1022.4 2.2 W 4.5 0.0 0.0
04:30 11.8 8.8 82 1022.6 2.2 W 4.5 0.0 0.0
04:31 11.8 8.8 82 1022.5 1.6 W 4.5 0.0 0.0
04:32 11.8 8.8 82 1022.6 3.8 W 4.5 0.0 0.0
04:33 11.8 8.8 82 1022.4 3.8 W 4.5 0.0 0.0
04:34 11.8 8.8 82 1022.5 5.4 NW 5.4 0.0 0.0
04:35 11.8 8.8 82 1022.5 7.6 SW 7.6 0.0 0.0
04:36 11.8 8.8 82 1022.5 7.6 W 7.6 0.0 0.0
04:37 11.8 8.8 82 1022.5 7.6 NW 7.6 0.0 0.0
04:38 11.9 8.9 82 1022.6 8.3 SW 8.3 0.0 0.0
04:39 11.9 8.9 82 1022.5 6.0 WNW 8.3 0.0 0.0
04:40 12.0 9.0 82 1022.5 7.6 W 8.3 0.0 0.0
04:41 12.0 9.2 83 1022.5 6.9 SW 8.3 0.0 0.0
04:42 12.0 9.2 83 1022.5 5.4 NW 8.3 0.0 0.0
04:43 12.1 9.3 83 1022.5 7.6 SW 8.3 0.0 0.0
04:44 12.1 9.3 83 1022.5 3.8 W 8.3 0.0 0.0
04:45 12.1 9.3 83 1022.6 3.8 W 8.3 0.0 0.0
04:46 12.1 9.3 83 1022.5 4.5 W 8.3 0.0 0.0
04:47 12.1 9.3 83 1022.5 2.2 W 8.3 0.0 0.0
04:48 12.2 9.4 83 1022.7 3.1 SW 7.6 0.0 0.0
04:49 12.2 9.4 83 1022.7 3.1 SW 7.6 0.0 0.0
04:50 12.2 9.4 83 1022.6 3.1 W 7.6 0.0 0.0
04:51 12.2 9.4 83 1022.5 3.1 SW 7.6 0.0 0.0
04:52 12.2 9.4 83 1022.4 3.1 SW 7.6 0.0 0.0
04:53 12.2 9.4 83 1022.5 3.1 SW 7.6 0.0 0.0
04:54 12.2 9.4 83 1022.5 3.1 SW 4.5 0.0 0.0
04:55 12.2 9.4 83 1022.6 4.5 W 4.5 0.0 0.0
04:56 12.2 9.4 83 1022.6 3.8 W 4.5 0.0 0.0
04:57 12.2 9.4 83 1022.6 4.5 W 4.5 0.0 0.0
04:58 12.2 9.4 83 1022.5 3.8 W 4.5 0.0 0.0
04:59 12.2 9.4 83 1022.6 3.1 N 4.5 0.0 0.0
05:01 12.2 9.4 83 1022.6 3.1 N 4.5 0.0 0.0
05:02 12.2 9.4 83 1022.5 4.5 W 4.5 0.0 0.0
05:03 12.2 9.4 83 1022.6 4.5 W 4.5 0.0 0.0
05:04 12.2 9.4 83 1022.4 2.2 W 4.5 0.0 0.0
05:05 12.2 9.4 83 1022.4 3.8 W 4.5 0.0 0.0
05:06 12.1 9.3 83 1022.5 4.5 W 4.5 0.0 0.0
05:07 12.1 9.3 83 1022.5 3.8 W 4.5 0.0 0.0
05:08 12.1 9.3 83 1022.6 3.1 W 4.5 0.0 0.0
05:09 12.1 9.3 83 1022.7 3.1 W 4.5 0.0 0.0
05:10 12.1 9.3 83 1022.5 3.8 SW 4.5 0.0 0.0
05:11 12.1 9.3 83 1022.6 3.8 SW 4.5 0.0 0.0
05:12 12.1 9.3 83 1022.5 3.1 N 4.5 0.0 0.0
05:13 12.1 9.3 83 1022.6 3.1 W 4.5 0.0 0.0
05:14 12.0 9.2 83 1022.7 3.1 SW 4.5 0.0 0.0
05:15 12.0 9.2 83 1022.7 3.1 SW 4.5 0.0 0.0
05:16 12.0 9.2 83 1022.7 3.1 SW 4.5 0.0 0.0
05:17 12.0 9.2 83 1022.6 2.2 SW 3.8 0.0 0.0
05:18 12.0 9.2 83 1022.6 3.1 SW 3.8 0.0 0.0
05:19 12.0 9.0 82 1022.5 3.1 SW 3.8 0.0 0.0
05:20 12.0 9.0 82 1022.5 2.2 SW 3.8 0.0 0.0
05:21 12.0 9.0 82 1022.7 2.2 SW 3.8 0.0 0.0
05:22 12.0 9.0 82 1022.7 3.8 W 3.8 0.0 0.0
05:23 11.9 9.1 83 1022.7 3.1 W 3.8 0.0 0.0
05:24 12.0 9.0 82 1022.5 2.2 W 3.8 0.0 0.0
05:25 11.9 9.1 83 1022.5 2.2 W 3.8 0.0 0.0
05:26 11.9 8.9 82 1022.5 3.1 NW 3.8 0.0 0.0
05:27 11.9 8.9 82 1022.5 3.8 WSW 3.8 0.0 0.0
05:28 11.9 8.9 82 1022.7 3.8 SW 3.8 0.0 0.0
05:29 11.9 8.9 82 1022.4 3.1 SW 3.8 0.0 0.0
05:30 11.9 8.9 82 1022.7 3.8 W 3.8 0.0 0.0
05:31 11.8 8.8 82 1022.7 3.1 SW 3.8 0.0 0.0
05:32 11.8 8.8 82 1022.6 3.1 SW 3.8 0.0 0.0
05:33 11.8 8.8 82 1022.6 3.1 SW 3.8 0.0 0.0
05:34 11.8 8.8 82 1022.5 3.1 SW 3.8 0.0 0.0
05:35 11.8 8.8 82 1022.6 3.1 SW 3.8 0.0 0.0
05:36 11.8 8.8 82 1022.7 2.2 SW 3.8 0.0 0.0
05:37 11.8 8.8 82 1022.6 3.1 SW 3.8 0.0 0.0
05:38 11.8 8.8 82 1022.7 1.6 SW 3.8 0.0 0.0
05:39 11.8 8.8 82 1022.7 1.6 SW 3.8 0.0 0.0
05:40 11.7 8.7 82 1022.7 2.2 W 3.1 0.0 0.0
05:41 11.7 8.7 82 1022.6 2.2 SW 3.1 0.0 0.0
05:42 11.7 8.7 82 1022.8 3.8 SW 3.8 0.0 0.0
05:43 11.7 8.7 82 1022.7 3.8 SW 3.8 0.0 0.0
05:44 11.7 8.7 82 1022.7 3.1 WSW 3.8 0.0 0.0
05:45 11.7 8.7 82 1022.6 3.1 W 3.8 0.0 0.0
05:46 11.7 8.7 82 1022.7 4.5 W 4.5 0.0 0.0
05:47 11.7 8.7 82 1022.7 3.1 W 4.5 0.0 0.0
05:48 11.7 8.7 82 1022.8 3.8 SW 4.5 0.0 0.0
05:49 11.6 8.6 82 1022.7 3.8 SW 4.5 0.0 0.0
05:50 11.6 8.6 82 1022.8 4.5 W 4.5 0.0 0.0
05:51 11.6 8.6 82 1022.7 3.8 W 4.5 0.0 0.0
05:52 11.6 8.6 82 1022.6 3.8 SW 4.5 0.0 0.0
05:53 11.6 8.6 82 1022.8 3.1 SW 4.5 0.0 0.0
05:54 11.6 8.6 82 1022.7 3.8 W 4.5 0.0 0.0
05:55 11.6 8.6 82 1022.6 3.1 NW 4.5 0.0 0.0
05:56 11.5 8.5 82 1022.8 3.8 WSW 4.5 0.0 0.0
05:57 11.5 8.5 82 1022.8 3.8 W 4.5 0.0 0.0
05:58 11.5 8.5 82 1022.7 3.1 W 4.5 0.0 0.0
05:59 11.5 8.5 82 1022.7 3.1 SW 4.5 0.0 0.0
06:00 11.5 8.5 82 1022.8 3.1 SW 3.8 0.0 0.0
06:01 11.5 8.5 82 1022.8 3.1 SW 3.8 0.0 0.0
06:02 11.5 8.5 82 1022.8 3.1 SW 3.8 0.0 0.0
06:03 11.5 8.5 82 1022.9 3.1 SW 3.8 0.0 0.0
06:04 11.5 8.5 82 1022.8 3.1 SW 3.8 0.0 0.0
06:05 11.5 8.5 82 1022.9 3.1 SW 3.8 0.0 0.0
06:06 11.5 8.5 82 1022.9 3.1 W 3.8 0.0 0.0
06:07 11.5 8.5 82 1022.8 3.1 W 3.8 0.0 0.0
06:08 11.5 8.5 82 1023.0 3.1 W 3.1 0.0 0.0
06:09 11.5 8.5 82 1023.0 3.8 NW 3.8 0.0 0.0
06:10 11.5 8.5 82 1023.0 3.8 NW 3.8 0.0 0.0
06:11 11.5 8.5 82 1023.0 3.1 W 3.8 0.0 0.0
06:12 11.5 8.5 82 1022.9 3.1 W 3.8 0.0 0.0
06:13 11.4 8.4 82 1022.9 2.2 W 3.8 0.0 0.0
06:14 11.4 8.4 82 1023.0 3.1 W 3.8 0.0 0.0
06:15 11.4 8.4 82 1023.0 2.2 SW 4.5 0.0 0.0
06:16 11.4 8.4 82 1023.0 2.2 SW 4.5 0.0 0.0
06:17 11.4 8.4 82 1022.9 2.2 SW 4.5 0.0 0.0
06:18 11.4 8.4 82 1023.0 3.8 SW 4.5 0.0 0.0
06:19 11.4 8.4 82 1023.0 3.1 SW 4.5 0.0 0.0
06:20 11.4 8.4 82 1023.0 3.1 SW 4.5 0.0 0.0
06:21 11.4 8.4 82 1023.0 2.2 SW 4.5 0.0 0.0
06:22 11.4 8.4 82 1023.0 2.2 SW 4.5 0.0 0.0
06:23 11.4 8.4 82 1022.9 1.6 SW 4.5 0.0 0.0
06:24 11.4 8.4 82 1023.0 1.6 SW 4.5 0.0 0.0
06:25 11.4 8.4 82 1023.0 3.1 SW 3.8 0.0 0.0
06:26 11.4 8.4 82 1023.0 2.2 SW 3.8 0.0 0.0
06:27 11.4 8.4 82 1023.1 2.2 SW 3.8 0.0 0.0
06:28 11.4 8.4 82 1023.0 2.2 SW 3.1 0.0 0.0
06:29 11.4 8.4 82 1023.0 2.2 SW 3.1 0.0 0.0
06:30 11.4 8.4 82 1023.0 2.2 SW 3.1 0.0 0.0
06:31 11.3 8.3 82 1023.2 2.2 SW 3.1 0.0 0.0
06:32 11.4 8.4 82 1023.2 1.6 SW 3.1 0.0 0.0
06:33 11.4 8.4 82 1023.2 2.2 SW 3.1 0.0 0.0
06:34 11.4 8.4 82 1023.2 3.1 SW 3.1 0.0 0.0
06:35 11.4 8.4 82 1023.1 1.6 SW 3.1 0.0 0.0
06:36 11.4 8.6 83 1023.2 2.2 SW 3.1 0.0 0.0
06:37 11.4 8.4 82 1023.1 3.1 SW 3.1 0.0 0.0
06:38 11.4 8.6 83 1023.3 3.8 WNW 3.8 0.0 0.0
06:39 11.4 8.6 83 1023.3 2.2 NW 3.8 0.0 0.0
06:40 11.5 8.7 83 1023.2 1.6 NW 3.8 0.0 0.0
06:41 11.4 8.6 83 1023.3 1.6 NW 3.8 0.0 0.0
06:42 11.5 8.7 83 1023.3 2.2 NW 3.8 0.0 0.0
06:43 11.4 8.6 83 1023.2 3.8 SW 3.8 0.0 0.0
06:44 11.5 8.7 83 1023.3 3.8 SW 3.8 0.0 0.0
06:45 11.5 8.7 83 1023.2 1.6 W 3.8 0.0 0.0
06:46 11.5 8.7 83 1023.3 5.4 W 5.4 0.0 0.0
06:47 11.5 8.7 83 1023.1 3.8 W 5.4 0.0 0.0
06:48 11.5 8.7 83 1023.2 3.1 W 5.4 0.0 0.0
06:49 11.5 8.7 83 1023.3 3.1 WSW 5.4 0.0 0.0
06:50 11.5 8.7 83 1023.3 3.1 NW 5.4 0.0 0.0
06:51 11.6 8.8 83 1023.2 3.1 W 5.4 0.0 0.0
06:52 11.6 8.8 83 1023.3 3.1 W 5.4 0.0 0.0
06:53 11.6 8.8 83 1023.5 1.6 NW 5.4 0.0 0.0
06:54 11.6 8.8 83 1023.3 1.6 SE 5.4 0.0 0.0
06:55 11.6 8.8 83 1023.4 2.2 SW 5.4 0.0 0.0
06:56 11.6 8.8 83 1023.4 1.6 WNW 4.5 0.0 0.0
06:57 11.6 8.8 83 1023.4 2.2 W 4.5 0.0 0.0
06:58 11.6 8.8 83 1023.4 2.2 W 4.5 0.0 0.0
06:59 11.7 8.9 83 1023.4 2.2 NW 4.5 0.0 0.0
07:00 11.7 8.9 83 1023.4 1.6 N 4.5 0.0 0.0
07:01 11.7 8.9 83 1023.4 1.6 N 4.5 0.0 0.0
07:02 11.7 8.9 83 1023.5 1.6 N 4.5 0.0 0.0
07:03 11.7 8.9 83 1023.4 1.6 N 4.5 0.0 0.0
07:04 11.7 8.9 83 1023.5 1.6 N 4.5 0.0 0.0
07:05 11.7 8.9 83 1023.4 1.6 N 4.5 0.0 0.0
07:07 11.8 9.0 83 1023.5 4.5 W 4.5 0.0 0.0
07:08 11.8 9.0 83 1023.5 4.5 W 4.5 0.0 0.0
07:09 11.8 9.0 83 1023.5 3.1 NW 4.5 0.0 0.0
07:10 11.8 9.0 83 1023.5 3.8 WSW 4.5 0.0 0.0
07:11 11.8 9.0 83 1023.6 3.1 W 4.5 0.0 0.0
07:12 11.8 9.0 83 1023.6 4.5 NW 4.5 0.0 0.0
07:13 11.8 9.0 83 1023.6 4.5 NW 4.5 0.0 0.0
07:14 11.8 9.0 83 1023.5 3.1 N 4.5 0.0 0.0
07:15 11.8 9.0 83 1023.5 3.1 W 4.5 0.0 0.0
07:16 11.8 9.0 83 1023.6 3.8 NE 4.5 0.0 0.0
07:17 11.9 9.1 83 1023.6 1.6 W 4.5 0.0 0.0
07:18 11.9 9.1 83 1023.6 3.8 NW 4.5 0.0 0.0
07:19 11.9 9.1 83 1023.5 3.8 NW 4.5 0.0 0.0
07:20 11.9 9.1 83 1023.6 3.1 W 4.5 0.0 0.0
07:21 11.9 9.1 83 1023.6 3.8 W 4.5 0.0 0.0
07:22 11.9 9.1 83 1023.6 3.1 NW 4.5 0.0 0.0
07:23 11.9 9.1 83 1023.7 3.8 W 3.8 0.0 0.0
07:24 12.0 9.2 83 1023.6 3.1 NW 3.8 0.0 0.0
07:25 11.9 9.1 83 1023.9 3.1 NW 3.8 0.0 0.0
07:26 12.0 9.2 83 1023.8 3.8 WNW 3.8 0.0 0.0
07:27 12.0 9.2 83 1023.9 4.5 NW 4.5 0.0 0.0
07:28 12.0 9.2 83 1023.9 4.5 NW 4.5 0.0 0.0
07:29 12.0 9.2 83 1023.8 5.4 NW 5.4 0.0 0.0
07:30 12.1 9.3 83 1023.7 2.2 NW 5.4 0.0 0.0
07:31 12.1 9.3 83 1023.9 3.8 W 5.4 0.0 0.0
07:32 12.1 9.3 83 1023.8 4.5 NW 5.4 0.0 0.0
07:33 12.1 9.3 83 1023.8 3.8 NW 5.4 0.0 0.0
07:34 12.2 9.4 83 1023.8 5.4 NW 6.0 0.0 0.0
07:35 12.2 9.4 83 1023.8 2.2 NW 6.0 0.0 0.0
07:36 12.2 9.4 83 1023.8 3.8 W 6.0 0.0 0.0
07:37 12.2 9.4 83 1023.8 4.5 W 6.0 0.0 0.0
07:38 12.3 9.5 83 1023.8 3.1 W 6.0 0.0 0.0
07:39 12.3 9.5 83 1023.9 4.5 W 6.0 0.0 0.0
07:40 12.3 9.5 83 1023.8 5.4 NW 6.0 0.0 0.0
07:41 12.3 9.5 83 1023.8 5.4 NW 6.0 0.0 0.0
07:42 12.4 9.6 83 1023.9 4.5 W 6.0 0.0 0.0
07:43 12.4 9.6 83 1023.9 5.4 W 6.0 0.0 0.0
07:44 12.4 9.6 83 1023.9 5.4 W 6.0 0.0 0.0
07:45 12.4 9.6 83 1023.9 4.5 NW 6.0 0.0 0.0
07:46 12.5 9.7 83 1024.0 3.8 N 6.0 0.0 0.0
07:47 12.5 9.7 83 1023.9 4.5 W 6.0 0.0 0.0
07:48 12.5 9.7 83 1024.0 3.8 NW 6.0 0.0 0.0
07:49 12.6 9.8 83 1024.0 2.2 N 6.0 0.0 0.0
07:50 12.6 9.8 83 1023.9 3.1 WSW 6.0 0.0 0.0
07:51 12.7 9.9 83 1024.0 2.2 NW 6.0 0.0 0.0
07:52 12.7 9.9 83 1024.0 6.9 W 6.9 0.0 0.0
07:53 12.7 9.9 83 1023.9 5.4 NW 6.9 0.0 0.0
07:54 12.7 9.9 83 1024.0 3.1 NW 6.9 0.0 0.0
07:55 12.7 9.9 83 1024.0 3.1 W 6.9 0.0 0.0
07:56 12.7 9.9 83 1024.0 4.5 W 6.9 0.0 0.0
07:57 12.8 10.0 83 1024.1 5.4 W 6.9 0.0 0.0
07:58 12.8 10.0 83 1024.0 6.0 SW 6.9 0.0 0.0
07:59 12.8 10.0 83 1024.0 5.4 W 6.9 0.0 0.0
08:00 12.9 10.1 83 1024.0 3.8 W 6.9 0.0 0.0
08:01 12.9 10.1 83 1024.0 3.8 W 6.9 0.0 0.0
08:02 12.9 9.9 82 1024.0 4.5 W 6.9 0.0 0.0
08:03 13.0 10.0 82 1024.0 5.4 WSW 6.0 0.0 0.0
08:04 13.0 10.0 82 1024.0 4.5 NW 6.0 0.0 0.0
08:05 13.0 10.0 82 1024.1 3.1 NW 6.0 0.0 0.0
08:06 13.0 10.0 82 1024.2 3.1 W 6.0 0.0 0.0
08:07 13.0 10.0 82 1024.1 5.4 W 6.0 0.0 0.0
08:08 13.0 10.0 82 1024.0 4.5 SW 5.4 0.0 0.0
08:09 13.0 10.0 82 1024.0 4.5 SW 5.4 0.0 0.0
08:10 13.1 10.1 82 1024.0 4.5 W 5.4 0.0 0.0
08:11 13.1 10.1 82 1024.2 3.8 S 5.4 0.0 0.0
08:12 13.1 10.1 82 1024.2 3.1 W 5.4 0.0 0.0
08:13 13.1 10.1 82 1024.2 4.5 SW 5.4 0.0 0.0
08:14 13.1 10.1 82 1024.2 6.0 SW 6.0 0.0 0.0
08:15 13.2 10.2 82 1024.2 5.4 W 6.0 0.0 0.0
08:16 13.1 10.1 82 1024.2 4.5 W 6.0 0.0 0.0
08:17 13.2 10.2 82 1024.2 3.8 W 6.0 0.0 0.0
08:18 13.2 10.2 82 1024.1 3.8 W 6.0 0.0 0.0
08:19 13.2 10.2 82 1024.2 3.8 SW 6.9 0.0 0.0
08:20 13.2 10.0 81 1024.3 3.8 SW 6.9 0.0 0.0
08:21 13.3 10.3 82 1024.2 5.4 NW 6.9 0.0 0.0
08:22 13.3 10.1 81 1024.2 4.5 W 6.9 0.0 0.0
08:23 13.3 10.3 82 1024.2 3.8 SW 6.9 0.0 0.0
08:24 13.3 10.1 81 1024.2 3.8 W 6.9 0.0 0.0
08:25 13.3 10.1 81 1024.2 4.5 W 6.9 0.0 0.0
08:26 13.3 10.1 81 1024.1 5.4 W 6.9 0.0 0.0
08:27 13.4 10.2 81 1024.3 7.6 W 7.6 0.0 0.0
08:28 13.4 10.2 81 1024.4 5.4 W 7.6 0.0 0.0
08:29 13.4 10.2 81 1024.3 4.5 SW 7.6 0.0 0.0
08:30 13.5 10.3 81 1024.3 3.1 SW 7.6 0.0 0.0
08:31 13.5 10.3 81 1024.3 6.9 W 7.6 0.0 0.0
08:32 13.5 10.3 81 1024.4 7.6 SW 7.6 0.0 0.0
08:33 13.5 10.3 81 1024.3 6.9 W 7.6 0.0 0.0
08:34 13.5 10.3 81 1024.3 3.8 SW 7.6 0.0 0.0
08:35 13.5 10.3 81 1024.4 5.4 SW 7.6 0.0 0.0
08:36 13.6 10.4 81 1024.3 8.3 SW 8.3 0.0 0.0
08:37 13.6 10.4 81 1024.3 7.6 SW 8.3 0.0 0.0
08:38 13.6 10.4 81 1024.4 6.9 W 8.3 0.0 0.0
08:39 13.6 10.4 81 1024.4 3.8 W 8.3 0.0 0.0
08:40 13.6 10.4 81 1024.4 6.9 W 8.3 0.0 0.0
08:41 13.7 10.5 81 1024.5 6.0 W 8.3 0.0 0.0
08:42 13.7 10.5 81 1024.5 9.2 NW 9.2 0.0 0.0
08:43 13.8 10.6 81 1024.5 7.6 W 9.2 0.0 0.0
08:44 13.8 10.6 81 1024.4 7.6 WNW 9.2 0.0 0.0
08:45 13.8 10.6 81 1024.6 3.8 SW 9.2 0.0 0.0
08:46 13.8 10.6 81 1024.6 4.5 W 9.2 0.0 0.0
08:47 13.9 10.7 81 1024.7 5.4 NW 9.2 0.0 0.0
08:48 13.9 10.7 81 1024.7 4.5 NW 9.2 0.0 0.0
08:49 13.9 10.7 81 1024.5 5.4 NW 9.2 0.0 0.0
08:50 13.9 10.7 81 1024.5 3.8 SW 9.2 0.0 0.0
08:51 13.9 10.7 81 1024.6 7.6 SW 9.2 0.0 0.0
08:52 13.9 10.7 81 1024.6 7.6 SW 9.2 0.0 0.0
08:53 14.0 10.8 81 1024.6 7.6 SW 9.8 0.0 0.0
08:54 14.0 10.8 81 1024.7 8.3 W 9.8 0.0 0.0
08:55 14.0 10.8 81 1024.8 8.3 SW 9.8 0.0 0.0
08:56 14.0 10.6 80 1024.7 6.9 SW 9.8 0.0 0.0
08:57 14.1 10.7 80 1024.7 3.8 SW 9.8 0.0 0.0
08:58 14.1 10.7 80 1024.7 7.6 N 9.8 0.0 0.0
09:00 14.1 10.7 80 1024.7 8.3 W 9.8 0.0 0.0
09:01 14.1 10.7 80 1024.7 8.3 W 9.8 0.0 0.0
09:02 14.2 10.8 80 1024.7 6.9 W 9.8 0.0 0.0
09:03 14.2 10.8 80 1024.7 5.4 W 8.3 0.0 0.0
09:04 14.3 10.9 80 1024.8 5.4 W 8.3 0.0 0.0
09:05 14.3 10.9 80 1024.8 4.5 W 8.3 0.0 0.0
09:06 14.3 10.9 80 1024.7 9.2 NW 9.2 0.0 0.0
09:07 14.3 10.9 80 1024.8 6.9 W 9.2 0.0 0.0
09:08 14.3 10.7 79 1024.8 8.3 WSW 9.2 0.0 0.0
09:09 14.3 10.7 79 1024.8 8.3 WSW 9.2 0.0 0.0
09:10 14.4 10.8 79 1024.7 6.0 S 9.2 0.0 0.0
09:11 14.4 10.8 79 1024.8 9.8 W 9.8 0.0 0.0
09:12 14.4 10.8 79 1024.7 9.8 NW 9.8 0.0 0.0
09:13 14.4 10.8 79 1024.9 9.8 W 9.8 0.0 0.0
09:14 14.5 10.9 79 1025.0 8.3 W 9.8 0.0 0.0
09:15 14.5 10.9 79 1024.9 7.6 SW 9.8 0.0 0.0
09:16 14.5 10.7 78 1024.9 5.4 SW 9.8 0.0 0.0
09:17 14.5 10.7 78 1024.8 4.5 NW 9.8 0.0 0.0
09:18 14.5 10.7 78 1024.8 7.6 SW 9.8 0.0 0.0
09:19 14.6 10.8 78 1024.8 8.3 SE 9.8 0.0 0.0
09:20 14.6 10.8 78 1025.0 6.9 W 9.8 0.0 0.0
09:21 14.6 10.8 78 1024.9 8.3 W 9.8 0.0 0.0
09:22 14.6 10.8 78 1024.9 6.9 W 9.8 0.0 0.0
09:23 14.6 10.8 78 1024.8 6.9 SW 9.8 0.0 0.0
09:24 14.6 10.6 77 1025.0 7.6 W 8.3 0.0 0.0
09:25 14.6 10.6 77 1025.0 7.6 W 8.3 0.0 0.0
09:26 14.6 10.6 77 1024.8 7.6 SW 8.3 0.0 0.0
09:27 14.6 10.6 77 1025.0 8.3 S 8.3 0.0 0.0
09:28 14.6 10.6 77 1024.9 5.4 W 8.3 0.0 0.0
09:29 14.7 10.7 77 1024.9 9.2 SW 9.2 0.0 0.0
09:30 14.7 10.7 77 1025.0 6.9 NW 9.2 0.0 0.0
09:31 14.7 10.7 77 1025.0 6.0 SW 9.2 0.0 0.0
09:32 14.8 10.8 77 1024.9 3.8 NW 9.2 0.0 0.0
09:33 14.7 10.7 77 1024.9 3.1 SW 9.2 0.0 0.0
09:34 14.7 10.7 77 1025.0 3.8 W 9.2 0.0 0.0
09:35 14.8 10.8 77 1025.0 8.3 W 9.2 0.0 0.0
09:36 14.8 10.6 76 1025.0 6.0 WSW 9.2 0.0 0.0
09:37 14.8 10.6 76 1025.0 5.4 SW 9.2 0.0 0.0
09:38 14.8 10.6 76 1025.0 6.0 SW 9.2 0.0 0.0
09:39 14.8 10.6 76 1025.0 3.8 SW 8.3 0.0 0.0
09:40 14.8 10.6 76 1025.0 9.2 SW 9.2 0.0 0.0
09:41 14.9 10.7 76 1025.2 6.0 W 9.2 0.0 0.0
09:42 14.9 10.7 76 1025.0 5.4 W 9.2 0.0 0.0
09:43 14.9 10.7 76 1024.9 3.8 W 9.2 0.0 0.0
09:44 15.0 10.8 76 1025.1 5.4 W 9.2 0.0 0.0
09:46 15.1 10.9 76 1025.0 9.2 S 9.8 0.0 0.0
09:47 15.1 10.9 76 1025.0 8.3 SW 9.8 0.0 0.0
09:48 15.1 10.9 76 1025.1 9.2 W 9.8 0.0 0.0
09:49 15.2 10.8 75 1025.1 6.9 WSW 9.8 0.0 0.0
09:50 15.2 10.8 75 1024.9 5.4 W 9.8 0.0 0.0
09:51 15.2 10.8 75 1024.9 5.4 W 9.8 0.0 0.0
09:52 15.2 10.8 75 1025.0 7.6 NNW 9.8 0.0 0.0
09:53 15.2 10.8 75 1025.1 9.8 NW 9.8 0.0 0.0
09:54 15.2 10.8 75 1025.1 6.0 NW 9.8 0.0 0.0
09:55 15.2 10.8 75 1025.1 7.6 WSW 9.8 0.0 0.0
09:56 15.2 10.8 75 1025.1 7.6 SW 9.8 0.0 0.0
09:57 15.2 10.6 74 1025.2 9.2 W 10.7 0.0 0.0
09:58 15.3 10.7 74 1025.1 9.2 W 10.7 0.0 0.0
10:00 15.3 10.7 74 1025.3 9.2 W 10.7 0.0 0.0
10:01 15.3 10.7 74 1025.2 9.2 W 10.7 0.0 0.0
10:02 15.3 10.7 74 1025.2 6.9 SW 10.7 0.0 0.0
10:03 15.4 10.8 74 1025.0 6.9 SW 10.7 0.0 0.0
10:04 15.4 10.8 74 1025.1 9.8 W 10.7 0.0 0.0
10:05 15.4 10.8 74 1025.1 8.3 SW 10.7 0.0 0.0
10:06 15.4 10.8 74 1025.1 10.7 W 10.7 0.0 0.0
10:07 15.4 10.8 74 1025.3 10.7 SSW 10.7 0.0 0.0
10:08 15.4 10.6 73 1025.2 8.3 SW 10.7 0.0 0.0
10:09 15.5 10.7 73 1025.3 8.3 SW 10.7 0.0 0.0
10:10 15.5 10.7 73 1025.3 10.7 W 10.7 0.0 0.0
10:11 15.5 10.7 73 1025.4 9.2 SW 10.7 0.0 0.0
10:12 15.5 10.7 73 1025.5 9.8 SW 10.7 0.0 0.0
10:13 15.5 10.7 73 1025.3 7.6 W 10.7 0.0 0.0
10:14 15.5 10.7 73 1025.3 6.9 W 10.7 0.0 0.0
10:15 15.5 10.7 73 1025.4 10.7 SW 10.7 0.0 0.0
10:16 15.6 10.8 73 1025.3 9.2 W 10.7 0.0 0.0
10:17 15.6 10.8 73 1025.4 6.0 SW 10.7 0.0 0.0
10:18 15.6 10.6 72 1025.3 5.4 SW 10.7 0.0 0.0
10:19 15.6 10.6 72 1025.3 8.3 SW 10.7 0.0 0.0
10:20 15.6 10.6 72 1025.3 8.3 SW 10.7 0.0 0.0
10:21 15.6 10.6 72 1025.3 6.9 SW 10.7 0.0 0.0
10:22 15.7 10.7 72 1025.3 7.6 W 10.7 0.0 0.0
10:23 15.7 10.7 72 1025.4 6.9 SW 10.7 0.0 0.0
10:24 15.7 10.7 72 1025.2 9.8 SW 10.7 0.0 0.0
10:25 15.7 10.7 72 1025.4 6.9 W 10.7 0.0 0.0
10:26 15.7 10.7 72 1025.3 10.7 W 10.7 0.0 0.0
10:27 15.8 10.8 72 1025.4 9.2 W 10.7 0.0 0.0
10:29 15.8 10.8 72 1025.5 11.4 SW 13.0 0.0 0.0
10:30 15.9 10.9 72 1025.4 8.3 W 13.0 0.0 0.0
10:31 15.9 10.9 72 1025.5 4.5 NW 13.0 0.0 0.0
10:32 15.9 10.9 72 1025.4 6.9 N 13.0 0.0 0.0
10:33 15.9 10.9 72 1025.4 8.3 SE 13.0 0.0 0.0
10:34 16.0 11.0 72 1025.5 7.6 SE 13.0 0.0 0.0
10:35 16.0 10.8 71 1025.4 6.9 W 13.0 0.0 0.0
10:36 16.0 10.8 71 1025.5 4.5 N 13.0 0.0 0.0
10:37 16.0 10.8 71 1025.5 4.5 W 13.0 0.0 0.0
10:38 16.1 10.8 71 1025.5 6.0 W 11.4 0.0 0.0
10:39 16.0 10.8 71 1025.5 6.9 SW 11.4 0.0 0.0
10:40 16.1 10.8 71 1025.5 6.0 SW 8.3 0.0 0.0
10:41 16.1 10.8 71 1025.5 8.3 SW 8.3 0.0 0.0
10:43 16.3 11.0 71 1025.5 9.2 SW 9.2 0.0 0.0
10:44 16.3 11.0 71 1025.5 11.4 SW 11.4 0.0 0.0
10:45 16.3 10.8 70 1025.5 9.8 WSW 11.4 0.0 0.0
10:46 16.4 10.9 70 1025.6 6.0 W 11.4 0.0 0.0
10:47 16.4 10.9 70 1025.6 4.5 W 11.4 0.0 0.0
10:48 16.4 10.9 70 1025.6 4.5 W 11.4 0.0 0.0
10:49 16.5 11.0 70 1025.5 6.9 NW 11.4 0.0 0.0
10:50 16.5 11.0 70 1025.7 6.0 W 11.4 0.0 0.0
10:51 16.6 11.1 70 1025.6 8.3 NW 11.4 0.0 0.0
10:52 16.6 11.1 70 1025.6 8.3 SW 11.4 0.0 0.0
10:53 16.7 11.0 69 1025.5 9.8 NW 11.4 0.0 0.0
10:54 16.6 10.9 69 1025.3 6.0 W 11.4 0.0 0.0
10:55 16.7 11.0 69 1025.5 7.6 W 9.8 0.0 0.0
10:57 16.8 10.9 68 1025.4 6.0 W 9.8 0.0 0.0
10:58 16.8 10.9 68 1025.5 9.2 SW 9.8 0.0 0.0
10:59 16.9 11.0 68 1025.6 6.0 S 9.8 0.0 0.0
11:00 16.9 11.0 68 1025.5 6.0 S 9.8 0.0 0.0
11:01 16.9 11.0 68 1025.5 6.0 S 9.8 0.0 0.0
11:02 17.0 11.1 68 1025.5 8.3 W 9.8 0.0 0.0
11:03 17.0 11.1 68 1025.5 9.2 W 9.8 0.0 0.0
11:04 17.0 11.1 68 1025.6 7.6 SW 9.2 0.0 0.0
11:05 17.0 10.8 67 1025.4 5.4 SW 9.2 0.0 0.0
11:06 17.1 10.9 67 1025.5 6.0 W 9.2 0.0 0.0
11:07 17.1 10.9 67 1025.5 6.0 NW 9.2 0.0 0.0
11:08 17.2 11.0 67 1025.7 5.4 W 9.2 0.0 0.0
11:09 17.2 11.0 67 1025.6 9.2 W 9.2 0.0 0.0
11:10 17.2 10.8 66 1025.8 5.4 NW 9.2 0.0 0.0
11:11 17.2 10.8 66 1025.8 6.9 SW 9.2 0.0 0.0
11:12 17.3 10.9 66 1025.6 6.0 NW 9.2 0.0 0.0
11:14 17.3 10.9 66 1025.6 6.0 SW 9.2 0.0 0.0
11:15 17.4 11.0 66 1025.6 6.9 W 9.2 0.0 0.0
11:16 17.4 11.0 66 1025.7 4.5 W 9.2 0.0 0.0
11:17 17.4 10.8 65 1025.7 9.2 W 9.2 0.0 0.0
11:18 17.4 10.8 65 1025.7 9.8 W 9.8 0.0 0.0
11:19 17.4 10.8 65 1025.7 8.3 WSW 9.8 0.0 0.0
11:20 17.4 10.8 65 1025.7 8.3 NW 9.8 0.0 0.0
11:21 17.4 10.5 64 1025.8 6.0 SW 9.8 0.0 0.0
11:22 17.3 10.4 64 1025.7 6.0 NW 9.8 0.0 0.0
11:23 17.3 10.4 64 1025.7 5.4 S 9.8 0.0 0.0
11:24 17.4 10.5 64 1025.7 6.9 SW 9.8 0.0 0.0
11:25 17.4 10.5 64 1025.7 7.6 W 9.8 0.0 0.0
11:26 17.5 10.6 64 1025.9 4.5 NW 9.8 0.0 0.0
11:27 17.6 10.7 64 1025.9 6.0 W 9.8 0.0 0.0
11:29 17.7 10.8 64 1025.9 6.9 S 8.3 0.0 0.0
11:30 17.7 11.0 65 1025.8 6.9 W 7.6 0.0 0.0
11:31 17.8 10.9 64 1025.9 6.0 W 7.6 0.0 0.1
11:32 17.9 11.0 64 1025.8 6.9 S 7.6 0.8 0.1
11:33 17.9 11.0 64 1025.8 5.4 S 7.6 0.8 0.1
11:34 17.9 11.0 64 1025.8 5.4 NW 7.6 0.8 0.1
11:35 17.9 10.8 63 1025.8 6.9 W 7.6 0.8 0.1
11:36 17.9 10.8 63 1025.8 6.9 W 7.6 0.8 0.1
11:37 17.9 10.8 63 1026.0 5.4 NW 7.6 0.0 0.1
11:38 17.9 10.5 62 1025.8 6.0 N 7.6 0.0 0.1
11:39 17.9 10.5 62 1025.8 8.3 W 8.3 0.0 0.1
11:40 17.9 10.5 62 1025.9 6.9 SW 8.3 0.0 0.1
11:41 17.9 10.5 62 1025.9 6.9 SW 8.3 0.0 0.1
11:43 17.9 10.5 62 1025.9 6.9 SW 8.3 0.0 0.1
11:44 17.9 10.5 62 1025.8 6.0 W 8.3 0.0 0.1
11:45 17.9 10.5 62 1026.0 6.9 SW 8.3 0.0 0.1
11:46 18.0 10.6 62 1025.8 7.6 WSW 8.3 0.0 0.1
11:47 18.1 10.7 62 1025.8 9.2 SW 9.2 0.0 0.1
11:48 18.1 10.7 62 1025.8 9.2 SW 9.2 0.0 0.1
11:49 18.2 10.8 62 1025.9 6.0 N 9.2 0.0 0.1
11:50 18.3 10.7 61 1025.8 7.6 NW 9.2 0.0 0.1
11:51 18.3 10.7 61 1025.9 6.9 W 9.2 0.0 0.1
11:52 18.3 10.4 60 1025.9 6.0 WNW 9.2 0.0 0.1
11:53 18.3 10.4 60 1025.9 5.4 N 9.2 0.0 0.1
11:54 18.2 10.3 60 1025.8 5.4 SW 9.2 0.0 0.1
11:55 18.3 10.4 60 1025.9 10.7 SW 10.7 0.0 0.1
11:57 18.3 10.4 60 1025.8 6.0 SW 10.7 0.0 0.1
11:58 18.4 10.5 60 1025.8 6.0 SW 10.7 0.0 0.1
11:59 18.4 10.3 59 1025.8 8.3 WSW 10.7 0.0 0.1
12:00 18.4 10.3 59 1025.8 8.3 WSW 10.7 0.0 0.1
12:01 18.4 10.3 59 1025.8 8.3 WSW 10.7 0.0 0.1
12:02 18.3 10.2 59 1025.9 9.2 S 10.7 0.0 0.1
12:03 18.3 10.2 59 1026.0 7.6 SW 10.7 0.0 0.1
12:04 18.3 10.2 59 1025.9 6.9 N 10.7 0.0 0.1
12:05 18.4 10.5 60 1025.9 8.3 SW 10.7 0.0 0.1
12:06 18.5 10.6 60 1026.0 12.1 SW 12.1 0.0 0.1
12:07 18.5 10.3 59 1026.0 11.4 SE 12.1 0.0 0.1
12:08 18.5 10.3 59 1026.0 9.8 S 12.1 0.0 0.1
12:09 18.5 10.3 59 1025.9 9.2 SW 12.1 0.0 0.1
12:10 18.5 10.3 59 1026.0 7.6 NW 12.1 0.0 0.1
12:12 18.5 10.3 59 1026.0 6.0 SW 12.1 0.0 0.1
12:13 18.5 10.3 59 1025.9 6.9 W 12.1 0.0 0.1
12:14 18.6 10.4 59 1026.0 6.9 S 12.1 0.0 0.1
12:15 18.7 10.5 59 1025.9 4.5 SW 12.1 0.0 0.1
12:16 18.7 10.5 59 1025.9 7.6 SW 11.4 0.0 0.1
12:17 18.7 10.5 59 1025.9 8.3 W 11.4 0.0 0.1
12:18 18.7 10.3 58 1026.1 8.3 SW 9.2 0.0 0.1
12:19 18.6 10.2 58 1026.0 7.6 W 9.2 0.0 0.1
12:20 18.6 10.2 58 1026.1 11.4 S 11.4 0.0 0.1
12:21 18.5 10.1 58 1026.0 7.6 SW 11.4 0.0 0.1
12:22 18.4 10.0 58 1025.9 6.0 SW 11.4 0.0 0.1
12:23 18.4 10.0 58 1026.0 5.4 SW 11.4 0.0 0.1
12:24 18.3 9.9 58 1025.9 8.3 SW 11.4 0.0 0.1
12:26 18.2 9.8 58 1025.8 6.9 S 11.4 0.0 0.1
12:27 18.2 10.1 59 1026.0 8.3 SW 11.4 0.0 0.1
12:28 18.1 10.0 59 1026.0 10.7 SW 11.4 0.0 0.1
12:29 18.1 10.0 59 1025.8 8.3 SW 11.4 0.0 0.1
12:30 18.1 10.0 59 1025.9 9.8 SW 10.7 0.0 0.1
12:31 18.1 10.0 59 1025.9 6.9 SW 10.7 0.0 0.1
12:32 18.1 10.0 59 1026.0 8.3 S 10.7 0.0 0.1
12:33 18.1 10.2 60 1026.0 7.6 SE 10.7 0.0 0.1
12:34 18.0 10.1 60 1026.0 8.3 S 10.7 0.0 0.1
12:35 18.0 9.9 59 1026.0 6.9 SW 10.7 0.0 0.1
12:36 18.0 9.9 59 1026.0 10.7 SW 10.7 0.0 0.1
12:37 17.9 10.0 60 1026.0 7.6 SW 10.7 0.0 0.1
12:38 17.9 10.0 60 1026.0 11.4 SW 11.4 0.0 0.1
12:40 17.8 9.9 60 1026.0 7.6 S 11.4 0.0 0.1
12:41 17.8 9.9 60 1026.0 9.2 S 11.4 0.0 0.1
12:42 17.8 9.9 60 1026.0 6.0 SW 11.4 0.0 0.1
12:43 17.9 10.3 61 1025.9 9.2 S 11.4 0.0 0.1
12:44 17.9 10.3 61 1025.9 9.2 S 11.4 0.0 0.1
12:45 18.0 10.6 62 1026.1 10.7 S 11.4 0.0 0.1
12:46 18.1 10.7 62 1026.0 9.2 S 11.4 0.0 0.1
12:47 18.2 10.8 62 1026.1 5.4 SW 11.4 0.0 0.1
12:48 18.2 10.6 61 1026.1 6.0 NW 11.4 0.0 0.1
12:49 18.3 10.7 61 1026.1 6.0 SW 10.7 0.0 0.1
12:50 18.3 10.7 61 1026.1 9.2 S 10.7 0.0 0.1
12:51 18.2 10.3 60 1026.1 9.2 NW 10.7 0.0 0.1
12:52 18.2 10.3 60 1026.3 9.2 SW 10.7 0.0 0.1
12:54 18.1 10.2 60 1026.2 11.4 SW 11.4 0.0 0.1
12:55 17.9 10.0 60 1026.2 9.8 SW 11.4 0.0 0.1
12:56 17.9 9.8 59 1026.0 8.3 S 11.4 0.0 0.1
12:57 17.8 9.7 59 1026.1 10.7 SW 11.4 0.0 0.1
12:58 17.7 9.6 59 1026.2 9.8 SE 11.4 0.0 0.1
12:59 17.7 9.6 59 1026.3 9.2 W 11.4 0.0 0.1
13:00 17.7 9.8 60 1026.2 7.6 WNW 11.4 0.0 0.1
13:01 17.7 9.8 60 1026.1 7.6 WNW 11.4 0.0 0.1
13:02 17.7 9.8 60 1026.2 7.6 WNW 11.4 0.0 0.1
13:03 17.7 9.8 60 1026.1 7.6 WNW 11.4 0.0 0.1
13:04 17.7 9.8 60 1026.0 7.6 WNW 11.4 0.0 0.1
13:05 17.7 9.8 60 1026.0 7.6 WNW 10.7 0.0 0.1
13:06 17.4 9.6 60 1026.2 6.0 SSW 10.7 0.0 0.1
13:07 17.4 9.6 60 1026.2 6.9 SW 9.8 0.0 0.1
13:08 17.3 9.7 61 1026.1 9.8 SW 9.8 0.0 0.1
13:10 17.3 9.7 61 1026.3 9.2 S 9.8 0.0 0.1
13:11 17.3 9.7 61 1026.0 9.8 SW 9.8 0.0 0.1
13:12 17.3 9.7 61 1026.2 13.0 SW 13.0 0.0 0.1
13:13 17.3 9.7 61 1026.2 11.4 NW 13.0 0.0 0.1
13:14 17.3 9.7 61 1026.2 8.3 SW 13.0 0.0 0.1
13:15 17.3 9.7 61 1026.2 9.8 S 13.0 0.0 0.1
13:16 17.3 9.7 61 1026.2 10.7 S 13.0 0.0 0.1
13:17 17.3 9.7 61 1026.2 10.7 SW 13.0 0.0 0.1
13:18 17.3 9.7 61 1026.2 8.3 S 13.0 0.0 0.1
13:19 17.3 9.7 61 1026.2 7.6 S 13.0 0.0 0.1
13:20 17.3 9.7 61 1026.3 10.7 S 13.0 0.0 0.1
13:21 17.3 9.7 61 1026.3 9.8 S 13.0 0.0 0.1
13:22 17.2 9.6 61 1026.3 9.2 S 13.0 0.0 0.1
13:24 17.2 9.6 61 1026.4 10.7 SW 12.1 0.0 0.1
13:25 17.1 9.5 61 1026.3 9.2 NW 12.1 0.0 0.1
13:26 17.1 9.8 62 1026.4 8.3 S 12.1 0.0 0.1
13:27 17.1 9.8 62 1026.3 9.2 SW 12.1 0.0 0.1
13:28 17.1 9.8 62 1026.3 9.2 SW 12.1 0.0 0.1
13:29 17.0 9.4 61 1026.3 10.7 SW 12.1 0.0 0.1
13:30 17.0 9.7 62 1026.1 6.0 SW 12.1 0.0 0.1
13:31 16.9 9.6 62 1026.3 9.8 S 10.7 0.0 0.1
13:32 16.9 9.6 62 1026.4 7.6 SW 10.7 0.0 0.1
13:33 16.9 9.6 62 1026.4 9.2 SW 10.7 0.0 0.1
13:34 16.9 9.6 62 1026.4 9.2 SW 10.7 0.0 0.1
13:35 16.9 9.8 63 1026.4 9.2 SW 11.4 0.0 0.1
13:36 16.9 9.8 63 1026.3 12.1 SW 12.1 0.0 0.1
13:37 16.9 9.8 63 1026.3 9.2 SW 12.1 0.0 0.1
13:39 16.8 9.7 63 1026.3 7.6 SSW 12.1 0.0 0.1
13:40 16.9 10.1 64 1026.5 7.6 SW 12.1 0.0 0.1
13:41 16.9 10.1 64 1026.3 8.3 S 12.1 0.0 0.1
13:42 17.1 10.5 65 1026.4 12.1 S 12.1 0.0 0.1
13:43 17.1 10.5 65 1026.4 12.1 S 12.1 0.0 0.1
13:44 17.2 10.6 65 1026.4 11.4 S 12.1 0.0 0.1
13:45 17.4 10.8 65 1026.4 11.4 S 13.0 0.0 0.1
13:46 17.5 10.9 65 1026.4 12.1 SW 13.0 0.0 0.1
13:47 17.6 11.0 65 1026.4 11.4 SW 13.0 0.0 0.1
13:48 17.7 11.0 65 1026.5 7.6 S 13.0 0.0 0.1
13:49 17.7 11.0 65 1026.5 9.8 S 13.0 0.0 0.1
13:50 17.9 11.2 65 1026.4 11.4 SE 13.0 0.0 0.1
13:51 18.0 11.3 65 1026.4 11.4 S 13.0 0.0 0.1
13:53 18.1 11.2 64 1026.4 13.0 SW 13.0 0.0 0.1
13:54 18.1 11.2 64 1026.4 13.6 SW 14.5 0.0 0.1
13:55 18.2 11.3 64 1026.5 13.6 S 14.5 0.0 0.1
13:56 18.2 11.3 64 1026.3 12.1 SW 14.5 0.0 0.1
13:57 18.3 11.4 64 1026.5 14.5 SW 14.5 0.0 0.1
13:58 18.4 11.5 64 1026.5 13.0 SW 14.5 0.0 0.1
13:59 18.4 11.5 64 1026.4 9.8 S 14.5 0.0 0.1
14:00 18.5 11.6 64 1026.5 11.4 SW 14.5 0.0 0.1
14:01 18.5 11.6 64 1026.5 11.4 SW 14.5 0.0 0.1
14:02 18.5 11.3 63 1026.3 13.0 SW 14.5 0.0 0.1
14:03 18.5 11.3 63 1026.5 13.6 W 14.5 0.0 0.1
14:04 18.5 11.1 62 1026.5 12.1 SW 14.5 0.0 0.1
14:05 18.4 11.2 63 1026.5 13.0 NNW 14.5 0.0 0.1
14:06 18.4 11.0 62 1026.4 10.7 S 14.5 0.0 0.1
14:08 18.3 10.9 62 1026.6 9.8 S 13.6 0.0 0.1
14:09 18.2 10.8 62 1026.5 15.9 NNW 15.9 0.0 0.1
14:10 18.0 10.6 62 1026.4 12.1 SE 15.9 0.0 0.1
14:11 18.0 10.6 62 1026.5 10.7 S 15.9 0.0 0.1
14:12 18.0 10.6 62 1026.5 10.7 S 15.9 0.0 0.1
14:13 17.8 10.4 62 1026.4 11.4 SW 15.9 0.0 0.1
14:14 17.8 10.4 62 1026.5 10.7 SW 15.9 0.0 0.1
14:15 17.7 10.3 62 1026.5 9.8 S 15.9 0.0 0.1
14:16 17.7 10.3 62 1026.5 13.0 S 15.9 0.0 0.1
14:17 17.6 10.2 62 1026.5 10.7 S 15.9 0.0 0.1
14:18 17.6 10.2 62 1026.4 13.6 WSW 15.9 0.0 0.1
14:19 17.5 10.1 62 1026.5 13.0 S 13.6 0.0 0.1
14:20 17.5 10.1 62 1026.5 9.8 SW 13.6 0.0 0.1
14:22 17.5 10.4 63 1026.4 9.8 SW 13.6 0.0 0.1
14:23 17.3 10.2 63 1026.5 10.7 SW 13.6 0.0 0.1
14:24 17.3 10.2 63 1026.6 11.4 S 13.6 0.0 0.1
14:25 17.2 10.1 63 1026.5 12.1 SW 13.6 0.0 0.1
14:26 17.2 10.1 63 1026.5 12.1 S 13.6 0.0 0.1
14:27 17.2 10.1 63 1026.5 9.2 SW 13.6 0.0 0.1
14:28 17.1 10.0 63 1026.5 8.3 S 13.6 0.0 0.1
14:29 17.1 10.0 63 1026.5 9.2 S 13.0 0.0 0.1
14:30 17.1 10.0 63 1026.5 10.7 SW 12.1 0.0 0.1
14:31 17.0 9.9 63 1026.3 13.6 S 13.6 0.0 0.1
14:32 17.0 9.9 63 1026.6 12.1 SW 13.6 0.0 0.1
14:33 17.0 10.1 64 1026.5 13.0 SW 13.6 0.0 0.1
14:34 17.0 10.1 64 1026.6 13.6 S 15.9 0.0 0.1
14:35 17.0 10.1 64 1026.5 13.6 S 15.9 0.0 0.1
14:37 16.9 10.1 64 1026.6 13.0 SW 15.9 0.0 0.1
14:38 16.9 10.1 64 1026.5 13.0 S 15.9 0.0 0.1
14:39 16.9 10.1 64 1026.7 9.8 SSW 15.9 0.0 0.1
14:40 16.9 10.1 64 1026.6 11.4 S 15.9 0.0 0.1
14:41 16.9 10.1 64 1026.5 9.8 SW 15.9 0.0 0.1
14:42 16.9 10.3 65 1026.6 11.4 SW 15.9 0.0 0.1
14:43 17.0 10.4 65 1026.4 11.4 SW 15.9 0.0 0.1
14:44 17.0 10.4 65 1026.9 13.6 S 15.9 0.0 0.1
14:45 17.1 10.5 65 1026.6 9.2 S 15.2 0.0 0.1
14:46 17.1 10.5 65 1026.5 11.4 SW 15.2 0.0 0.1
14:47 17.2 10.6 65 1026.5 12.1 SW 15.2 0.0 0.1
14:48 17.3 10.9 66 1026.5 10.7 SW 15.2 0.0 0.1
14:49 17.5 11.1 66 1026.5 15.2 SW 15.2 0.0 0.1
14:50 17.6 11.2 66 1026.6 13.0 SW 15.9 0.0 0.1
14:52 17.7 11.3 66 1026.5 13.0 SE 15.9 0.0 0.1
14:53 17.8 11.4 66 1026.4 17.4 SW 17.4 0.0 0.1
14:54 17.9 11.2 65 1026.5 14.5 SE 17.4 0.0 0.1
14:55 17.9 11.2 65 1026.5 14.5 SE 17.4 0.0 0.1
14:56 17.9 11.2 65 1026.5 12.1 SE 17.4 0.0 0.1
14:57 18.0 11.3 65 1026.4 13.0 S 17.4 0.0 0.1
14:58 18.1 11.4 65 1026.8 13.6 S 17.4 0.0 0.1
14:59 18.1 11.4 65 1026.7 12.1 S 17.4 0.0 0.1
15:00 18.2 11.5 65 1026.5 13.0 S 17.4 0.0 0.1
15:01 18.2 11.5 65 1026.4 13.0 S 17.4 0.0 0.1
15:02 18.3 11.4 64 1026.6 13.0 SE 17.4 0.0 0.1
15:03 18.4 11.7 65 1026.5 12.1 SW 14.5 0.0 0.1
15:04 18.5 11.8 65 1026.6 12.1 W 14.5 0.0 0.1
15:05 18.6 11.7 64 1026.5 13.6 SW 13.6 0.0 0.1
15:06 18.6 11.7 64 1026.5 16.8 S 16.8 0.0 0.1
15:07 18.6 11.7 64 1026.5 11.4 SW 16.8 0.0 0.1
15:08 18.6 11.7 64 1026.5 12.1 S 16.8 0.0 0.1
15:10 18.6 11.7 64 1026.6 12.1 S 16.8 0.0 0.1
15:11 18.7 11.8 64 1026.4 9.8 SW 16.8 0.0 0.1
15:12 18.7 11.8 64 1026.7 11.4 SW 16.8 0.0 0.1
15:13 18.8 11.9 64 1026.6 13.6 W 16.8 0.0 0.1
15:14 18.8 11.9 64 1026.5 10.7 S 16.8 0.0 0.1
15:15 18.9 12.0 64 1026.7 10.7 S 16.8 0.0 0.1
15:16 18.9 12.0 64 1026.6 12.1 SW 16.8 0.0 0.1
15:17 18.9 12.0 64 1026.6 13.6 SW 15.2 0.0 0.1
15:18 18.9 11.7 63 1026.5 12.1 SW 15.2 0.0 0.1
15:19 18.9 11.7 63 1026.6 15.2 SW 15.2 0.0 0.1
15:20 18.9 11.7 63 1026.5 13.0 S 15.2 0.0 0.1
15:21 18.9 11.7 63 1026.5 14.5 S 15.2 0.0 0.1
15:22 18.9 11.7 63 1026.5 10.7 SW 15.2 0.0 0.1
15:24 18.9 11.5 62 1026.5 17.4 SW 17.4 0.0 0.1
15:25 18.9 11.5 62 1026.5 12.1 S 17.4 0.0 0.1
15:26 18.9 11.5 62 1026.5 14.5 SW 17.4 0.0 0.1
15:27 18.8 11.4 62 1026.6 16.8 SW 17.4 0.0 0.1
15:28 18.8 11.1 61 1026.6 13.6 SW 17.4 0.0 0.1
15:29 18.8 11.1 61 1026.5 10.7 SSW 17.4 0.0 0.1
15:30 18.8 11.1 61 1026.5 9.2 SW 17.4 0.0 0.1
15:31 18.8 11.1 61 1026.5 11.4 S 17.4 0.0 0.1
15:32 18.7 11.3 62 1026.5 10.7 SW 17.4 0.0 0.1
15:33 18.7 11.3 62 1026.7 13.6 S 17.4 0.0 0.1
15:34 18.7 11.0 61 1026.6 12.1 S 17.4 0.0 0.1
15:35 18.8 11.1 61 1026.8 13.0 S 16.8 0.0 0.1
15:36 18.8 11.1 61 1026.6 10.7 SW 16.8 0.0 0.1
15:37 18.8 11.1 61 1026.6 13.0 SSW 16.8 0.0 0.1
15:38 18.8 11.1 61 1026.5 7.6 SW 15.2 0.0 0.1
15:39 18.8 11.4 62 1026.5 9.8 W 15.2 0.0 0.1
15:41 18.9 11.5 62 1026.3 13.6 SW 15.2 0.0 0.1
15:42 18.9 11.2 61 1026.5 13.6 SW 15.2 0.0 0.1
15:43 18.9 11.0 60 1026.6 16.8 S 16.8 0.0 0.1
15:44 18.9 11.0 60 1026.6 13.0 SW 16.8 0.0 0.1
15:45 18.9 11.0 60 1026.5 10.7 S 16.8 0.0 0.1
15:46 18.9 11.0 60 1026.4 13.0 N 16.8 0.0 0.1
15:47 18.9 11.0 60 1026.4 12.1 NW 16.8 0.0 0.1
15:48 18.9 11.0 60 1026.7 13.0 SW 16.8 0.0 0.1
15:49 19.0 11.1 60 1026.4 11.4 SW 16.8 0.0 0.1
15:50 19.0 11.1 60 1026.7 13.0 NW 16.8 0.0 0.1
15:51 19.0 11.1 60 1026.6 14.5 SSW 16.8 0.0 0.1
15:52 19.0 11.1 60 1026.7 10.7 SE 16.8 0.0 0.1
15:53 19.0 11.1 60 1026.6 9.8 S 16.8 0.0 0.1
15:54 18.9 10.7 59 1026.7 9.8 S 14.5 0.0 0.1
15:55 18.8 10.6 59 1026.6 11.4 S 14.5 0.0 0.1
15:56 18.8 10.6 59 1026.7 12.1 S 14.5 0.0 0.1
15:58 18.6 10.4 59 1026.5 9.8 SW 14.5 0.0 0.1
15:59 18.5 10.6 60 1026.5 11.4 SW 14.5 0.0 0.1
16:00 18.5 10.6 60 1026.5 11.4 SW 14.5 0.0 0.1
16:01 18.5 10.6 60 1026.4 11.4 SW 12.1 0.0 0.1
16:02 18.5 10.6 60 1026.5 15.2 SW 15.2 0.0 0.1
16:03 18.5 10.6 60 1026.5 13.0 S 15.2 0.0 0.1
16:04 18.4 10.5 60 1026.6 10.7 S 15.2 0.0 0.1
16:05 18.4 10.5 60 1026.5 13.0 WSW 15.2 0.0 0.1
16:06 18.4 10.5 60 1026.5 13.0 WSW 15.2 0.0 0.1
16:07 18.3 10.4 60 1026.5 10.7 SW 15.2 0.0 0.1
16:08 18.2 10.6 61 1026.4 8.3 SW 15.2 0.0 0.1
16:09 18.2 10.6 61 1026.5 8.3 W 15.2 0.0 0.1
16:10 18.2 10.6 61 1026.5 9.8 SW 15.2 0.0 0.1
16:12 18.2 10.8 62 1026.5 10.7 SW 13.0 0.0 0.1
16:13 18.2 10.8 62 1026.5 11.4 SW 13.0 0.0 0.1
16:14 18.2 10.8 62 1026.5 13.6 S 13.6 0.0 0.1
16:15 18.2 10.8 62 1026.6 12.1 SW 13.6 0.0 0.1
16:16 18.2 10.8 62 1026.6 11.4 S 13.6 0.0 0.1
16:17 18.1 10.7 62 1026.5 11.4 NNW 13.6 0.0 0.1
16:18 18.0 10.6 62 1026.4 9.8 SW 13.6 0.0 0.1
16:19 18.0 10.6 62 1026.5 9.8 SW 13.6 0.0 0.1
16:20 17.9 10.5 62 1026.5 11.4 S 13.6 0.0 0.1
16:21 17.9 10.5 62 1026.6 13.0 SW 13.6 0.0 0.1
16:22 17.8 10.4 62 1026.6 14.5 S 14.5 0.0 0.1
16:23 17.8 10.4 62 1026.5 12.1 S 14.5 0.0 0.1
16:24 17.7 10.3 62 1026.6 13.6 S 14.5 0.0 0.1
16:25 17.7 10.6 63 1026.5 15.2 SW 15.2 0.0 0.1
16:26 17.7 10.6 63 1026.5 10.7 SW 15.2 0.0 0.1
16:27 17.7 10.6 63 1026.5 13.0 E 15.2 0.0 0.1
16:28 17.7 10.6 63 1026.5 14.5 SSW 15.2 0.0 0.1
16:29 17.7 10.6 63 1026.5 11.4 S 15.2 0.0 0.1
16:31 17.7 10.8 64 1026.5 11.4 S 15.2 0.0 0.1
16:32 17.7 10.6 63 1026.7 13.0 S 15.2 0.0 0.1
16:33 17.7 10.6 63 1026.5 13.0 S 15.2 0.0 0.1
16:34 17.8 10.9 64 1026.5 12.1 SW 15.2 0.0 0.1
16:35 17.8 10.9 64 1026.5 12.1 SW 15.2 0.0 0.1
16:36 17.8 10.7 63 1026.5 9.8 SW 14.5 0.0 0.1
16:37 17.8 10.7 63 1026.4 9.2 SW 14.5 0.0 0.1
16:38 17.8 10.7 63 1026.3 9.8 SW 14.5 0.0 0.1
16:39 17.8 10.7 63 1026.6 13.6 SE 13.6 0.0 0.1
16:40 17.8 10.9 64 1026.5 9.8 SE 13.6 0.0 0.1
16:41 17.8 10.9 64 1026.5 9.2 S 13.6 0.0 0.1
16:42 17.9 11.0 64 1026.6 13.0 S 13.6 0.0 0.1
16:43 17.9 11.0 64 1026.6 12.1 S 13.6 0.0 0.1
16:44 18.0 11.1 64 1026.5 13.0 S 13.6 0.0 0.1
16:45 18.0 11.3 65 1026.5 13.0 SW 13.6 0.0 0.1
16:47 18.2 11.5 65 1026.5 9.2 SW 13.6 0.0 0.1
16:48 18.2 11.3 64 1026.5 12.1 S 13.6 0.0 0.1
16:49 18.2 11.3 64 1026.3 10.7 S 13.0 0.0 0.1
16:50 18.2 11.3 64 1026.4 9.2 W 13.0 0.0 0.1
16:51 18.2 11.3 64 1026.5 11.4 SW 13.0 0.0 0.1
16:52 18.2 11.3 64 1026.4 8.3 SW 13.0 0.0 0.1
16:53 18.1 11.0 63 1026.4 6.9 W 13.0 0.0 0.1
16:54 18.1 11.0 63 1026.5 9.8 W 13.0 0.0 0.1
16:55 18.1 11.0 63 1026.5 9.2 SW 13.0 0.0 0.1
16:56 18.0 10.9 63 1026.5 8.3 N 12.1 0.0 0.1
16:57 18.0 10.9 63 1026.6 12.1 NW 12.1 0.0 0.1
16:58 17.9 10.8 63 1026.5 13.6 S 13.6 0.0 0.1
16:59 17.9 10.8 63 1026.5 12.1 SW 13.6 0.0 0.1
17:00 17.9 10.8 63 1026.5 12.1 SW 13.6 0.0 0.1
17:01 18.0 11.1 64 1026.4 10.7 S 13.6 0.0 0.1
17:03 18.2 11.5 65 1026.4 8.3 SW 13.6 0.0 0.1
17:04 18.3 11.6 65 1026.4 10.7 S 13.6 0.0 0.1
17:05 18.4 11.7 65 1026.4 10.7 S 13.6 0.0 0.1
17:06 18.4 11.7 65 1026.4 10.7 S 13.6 0.0 0.1
17:07 18.5 11.8 65 1026.4 10.7 SW 13.6 0.0 0.1
17:08 18.6 11.9 65 1026.3 13.0 S 13.6 0.0 0.1
17:09 18.7 12.0 65 1026.5 7.6 S 13.0 0.0 0.1
17:10 18.8 12.1 65 1026.5 9.2 SW 13.0 0.0 0.1
17:11 18.8 12.1 65 1026.4 10.7 SSW 13.0 0.0 0.1
17:12 18.8 11.9 64 1026.4 12.1 SW 13.6 0.0 0.1
17:13 18.8 11.9 64 1026.5 10.7 S 13.6 0.0 0.1
17:14 18.8 11.6 63 1026.5 10.7 NW 13.6 0.0 0.1
17:15 18.8 11.6 63 1026.4 13.0 NW 13.6 0.0 0.1
17:16 18.8 11.6 63 1026.5 9.8 W 13.6 0.0 0.1
17:17 18.8 11.6 63 1026.4 10.7 SW 13.6 0.0 0.1
17:18 18.8 11.6 63 1026.5 6.9 NW 13.6 0.0 0.1
17:20 18.7 11.5 63 1026.6 8.3 SW 13.6 0.0 0.1
17:21 18.5 11.3 63 1026.6 10.7 SW 13.0 0.0 0.1
17:22 18.5 11.3 63 1026.6 10.7 SW 13.0 0.0 0.1
17:23 18.5 11.3 63 1026.6 10.7 SW 13.0 0.0 0.1
17:24 18.4 11.2 63 1026.5 8.3 S 13.0 0.0 0.1
17:25 18.3 11.1 63 1026.6 9.2 SW 12.1 0.0 0.1
17:26 18.3 11.1 63 1026.6 8.3 SW 12.1 0.0 0.1
17:27 18.2 11.0 63 1026.6 8.3 SW 12.1 0.0 0.1
17:28 18.2 11.0 63 1026.5 8.3 S 12.1 0.0 0.1
17:29 18.2 11.0 63 1026.6 7.6 SW 12.1 0.0 0.1
17:30 18.3 11.4 64 1026.5 12.1 WSW 12.1 0.0 0.1
17:31 18.4 11.5 64 1026.5 13.0 S 13.0 0.0 0.1
17:32 18.4 11.2 63 1026.6 10.7 SE 13.0 0.0 0.1
17:33 18.4 11.2 63 1026.5 13.0 SW 13.0 0.0 0.1
17:35 18.4 11.2 63 1026.5 10.7 S 13.0 0.0 0.1
17:36 18.4 11.2 63 1026.5 13.0 S 13.0 0.0 0.1
17:37 18.4 11.2 63 1026.6 12.1 S 13.0 0.0 0.1
17:38 18.4 11.2 63 1026.5 13.0 NW 13.0 0.0 0.1
17:39 18.4 11.2 63 1026.4 8.3 SW 13.0 0.0 0.1
17:40 18.4 11.2 63 1026.7 10.7 SW 13.0 0.0 0.1
17:41 18.5 11.3 63 1026.7 9.8 W 13.0 0.0 0.1
17:42 18.5 11.3 63 1026.6 11.4 SW 13.0 0.0 0.1
17:43 18.5 11.3 63 1026.7 12.1 SW 13.0 0.0 0.1
17:44 18.6 11.2 62 1026.5 13.0 SW 13.0 0.0 0.1
17:45 18.7 11.0 61 1026.6 10.7 SW 13.0 0.0 0.1
17:46 18.7 11.0 61 1026.5 9.8 WSW 13.0 0.0 0.1
17:47 18.7 11.0 61 1026.7 6.0 S 13.0 0.0 0.1
17:49 18.8 11.1 61 1026.6 9.2 SW 13.0 0.0 0.1
17:50 18.9 11.2 61 1026.7 9.8 S 13.0 0.0 0.1
17:51 18.8 11.1 61 1026.5 10.7 SW 13.0 0.0 0.1
17:52 18.8 11.1 61 1026.5 12.1 SW 13.0 0.0 0.1
17:53 18.8 11.1 61 1026.6 11.4 SW 13.0 0.0 0.1
17:54 18.8 11.1 61 1026.7 9.8 W 12.1 0.0 0.1
17:55 18.8 11.1 61 1026.6 11.4 WNW 12.1 0.0 0.1
17:56 18.7 11.0 61 1026.8 10.7 S 12.1 0.0 0.1
17:57 18.8 11.1 61 1026.7 9.2 SW 12.1 0.0 0.1
17:58 18.8 11.1 61 1026.7 7.6 S 12.1 0.0 0.1
17:59 18.7 11.0 61 1026.6 9.2 S 12.1 0.0 0.1
18:00 18.7 11.0 61 1026.6 9.2 S 12.1 0.0 0.1
18:01 18.6 10.9 61 1026.8 9.2 SW 12.1 0.0 0.1
18:02 18.6 10.9 61 1026.8 7.6 S 12.1 0.0 0.1
18:04 18.6 10.9 61 1026.6 9.2 S 12.1 0.0 0.1
18:05 18.5 10.8 61 1026.7 10.7 SW 12.1 0.0 0.1
18:06 18.5 10.8 61 1026.7 10.7 SW 12.1 0.0 0.1
18:07 18.5 10.8 61 1026.8 8.3 SW 12.1 0.0 0.1
18:08 18.5 11.1 62 1026.7 9.8 S 12.1 0.0 0.1
18:09 18.4 11.0 62 1026.7 9.8 SW 10.7 0.0 0.1
18:10 18.4 11.0 62 1026.7 9.8 SW 10.7 0.0 0.1
18:11 18.3 10.9 62 1026.6 8.3 W 10.7 0.0 0.1
18:12 18.2 10.6 61 1026.7 10.7 S 10.7 0.0 0.1
18:13 18.1 10.7 62 1026.9 9.8 S 10.7 0.0 0.1
18:14 18.0 10.6 62 1026.8 9.8 NE 10.7 0.0 0.1
18:15 17.9 10.5 62 1026.8 7.6 SE 10.7 0.0 0.1
18:16 17.8 10.4 62 1026.8 9.2 SSW 10.7 0.0 0.1
18:18 17.7 10.3 62 1026.7 7.6 SW 11.4 0.0 0.1
18:19 17.6 10.2 62 1026.9 7.6 SW 11.4 0.0 0.1
18:20 17.6 10.5 63 1026.8 9.2 S 11.4 0.0 0.1
18:21 17.5 10.4 63 1026.8 9.2 SW 11.4 0.0 0.1
18:22 17.4 10.3 63 1026.9 9.2 SW 11.4 0.0 0.1
18:23 17.4 10.3 63 1026.9 9.2 SW 11.4 0.0 0.1
18:24 17.3 10.2 63 1026.7 6.0 S 11.4 0.0 0.1
18:25 17.3 10.4 64 1026.9 6.9 SW 11.4 0.0 0.1
18:26 17.3 10.4 64 1026.8 9.8 SW 11.4 0.0 0.1
18:27 17.3 10.4 64 1026.9 9.8 SW 11.4 0.0 0.1
18:28 17.4 10.8 65 1026.9 9.2 S 10.7 0.0 0.1
18:29 17.5 10.9 65 1026.9 9.8 S 10.7 0.0 0.1
18:30 17.5 10.9 65 1026.8 8.3 S 10.7 0.0 0.1
18:31 17.6 11.0 65 1026.9 9.2 SW 10.7 0.0 0.1
18:33 17.7 11.0 65 1026.8 6.9 S 10.7 0.0 0.1
18:34 17.7 11.0 65 1026.9 9.2 S 10.7 0.0 0.1
18:35 17.7 11.0 65 1026.9 9.2 S 10.7 0.0 0.1
18:36 17.7 11.0 65 1026.9 11.4 S 11.4 0.0 0.1
18:37 17.7 11.0 65 1026.9 8.3 SW 11.4 0.0 0.1
18:38 17.7 11.0 65 1026.8 6.9 SW 11.4 0.0 0.1
18:39 17.7 11.0 65 1026.7 7.6 W 11.4 0.0 0.1
18:40 17.7 11.0 65 1026.8 9.2 SW 11.4 0.0 0.1
18:41 17.7 11.0 65 1027.0 8.3 W 11.4 0.0 0.1
18:42 17.8 11.1 65 1027.0 9.2 SW 11.4 0.0 0.1
18:43 17.8 10.9 64 1027.0 8.3 SW 11.4 0.0 0.1
18:44 17.8 10.9 64 1026.9 10.7 SW 11.4 0.0 0.1
18:45 17.7 10.8 64 1027.0 8.3 WSW 11.4 0.0 0.1
18:47 17.7 10.6 63 1026.9 6.9 SW 10.7 0.0 0.1
18:48 17.6 10.5 63 1026.8 6.9 NW 10.7 0.0 0.1
18:49 17.6 10.5 63 1026.9 8.3 WSW 10.7 0.0 0.1
18:50 17.6 10.5 63 1026.9 4.5 NW 10.7 0.0 0.1
18:51 17.6 10.5 63 1026.8 9.2 SW 10.7 0.0 0.1
18:52 17.6 10.5 63 1026.9 13.0 SW 13.0 0.0 0.1
18:53 17.6 10.5 63 1026.8 10.7 SW 13.0 0.0 0.1
18:54 17.6 10.5 63 1026.8 9.8 SW 13.0 0.0 0.1
18:55 17.6 10.5 63 1026.8 10.7 SW 13.0 0.0 0.1
18:56 17.5 10.4 63 1027.0 10.7 WSW 13.0 0.0 0.1
18:57 17.5 10.4 63 1027.0 10.7 SW 13.0 0.0 0.1
18:58 17.4 10.3 63 1026.8 9.2 W 13.0 0.0 0.1
18:59 17.4 10.3 63 1026.8 6.9 W 13.0 0.0 0.1
19:01 17.4 10.3 63 1026.9 6.9 W 13.0 0.0 0.1
19:02 17.4 10.3 63 1026.9 6.9 SW 13.0 0.0 0.1
19:03 17.4 10.3 63 1027.0 9.8 SW 13.0 0.0 0.1
19:04 17.4 10.3 63 1026.8 9.2 W 13.0 0.0 0.1
19:05 17.4 10.3 63 1026.9 13.6 SW 13.6 0.0 0.1
19:06 17.4 10.3 63 1026.9 9.2 SW 13.6 0.0 0.1
19:07 17.4 10.3 63 1027.0 8.3 NW 13.6 0.0 0.1
19:08 17.3 10.0 62 1026.9 8.3 SW 13.6 0.0 0.1
19:09 17.3 10.0 62 1027.0 10.7 WSW 13.6 0.0 0.1
19:10 17.3 10.0 62 1026.8 9.8 SW 13.6 0.0 0.1
19:11 17.2 9.9 62 1026.8 7.6 SW 13.6 0.0 0.1
19:12 17.2 9.9 62 1026.9 4.5 W 13.6 0.0 0.1
19:13 17.1 10.0 63 1026.9 9.8 SW 13.6 0.0 0.1
19:14 17.1 10.0 63 1026.8 5.4 WSW 13.6 0.0 0.1
19:15 17.0 9.9 63 1026.8 6.9 SW 10.7 0.0 0.1
19:16 17.0 9.9 63 1026.9 6.9 NW 10.7 0.0 0.1
19:18 16.9 9.8 63 1026.8 6.9 SW 10.7 0.0 0.1
19:19 16.9 9.8 63 1027.0 6.0 SW 9.8 0.0 0.1
19:20 16.8 9.7 63 1026.8 8.3 SW 9.8 0.0 0.1
19:21 16.8 9.7 63 1026.9 5.4 W 9.8 0.0 0.1
19:22 16.8 9.7 63 1026.9 6.9 SW 9.8 0.0 0.1
19:23 16.7 9.6 63 1026.8 5.4 SW 9.8 0.0 0.1
19:24 16.7 9.9 64 1026.9 6.0 SW 9.8 0.0 0.1
19:25 16.7 9.9 64 1026.9 5.4 SW 8.3 0.0 0.1
19:26 16.6 9.8 64 1026.9 6.0 SW 8.3 0.0 0.1
19:27 16.5 9.7 64 1026.9 6.0 SW 8.3 0.0 0.1
19:28 16.5 9.7 64 1026.8 5.4 SW 8.3 0.0 0.1
19:29 16.5 9.7 64 1026.8 6.9 S 8.3 0.0 0.1
19:30 16.4 9.6 64 1027.0 5.4 W 7.6 0.0 0.1
19:32 16.4 9.8 65 1026.9 4.5 W 7.6 0.0 0.1
19:33 16.4 9.8 65 1026.9 6.9 SW 7.6 0.0 0.1
19:34 16.3 9.7 65 1027.0 6.9 NW 7.6 0.0 0.1
19:35 16.3 9.7 65 1027.1 8.3 SW 8.3 0.0 0.1
19:36 16.3 9.7 65 1026.9 8.3 SW 8.3 0.0 0.1
19:37 16.3 9.7 65 1026.9 6.9 W 8.3 0.0 0.1
19:38 16.2 9.6 65 1027.1 6.9 NW 8.3 0.0 0.1
19:39 16.2 9.6 65 1027.0 6.0 NW 8.3 0.0 0.1
19:40 16.2 9.8 66 1027.0 4.5 SW 8.3 0.0 0.1
19:41 16.1 9.8 66 1027.0 4.5 NW 8.3 0.0 0.1
19:42 16.1 9.8 66 1026.9 6.0 SW 8.3 0.0 0.1
19:43 16.1 9.8 66 1026.9 5.4 SW 8.3 0.0 0.1
19:44 16.0 9.7 66 1026.9 6.0 W 8.3 0.0 0.1
19:46 16.0 9.7 66 1027.0 3.8 SW 6.9 0.0 0.1
19:47 16.0 9.9 67 1026.9 5.4 S 6.9 0.0 0.1
19:48 15.9 9.8 67 1027.1 4.5 S 6.0 0.0 0.1
19:49 15.9 9.8 67 1027.1 6.9 SW 6.9 0.0 0.1
19:50 15.9 9.8 67 1027.1 4.5 SW 6.9 0.0 0.1
19:51 15.9 9.8 67 1027.0 4.5 S 6.9 0.0 0.1
19:52 15.9 9.8 67 1027.1 5.4 SSW 6.9 0.0 0.1
19:53 15.8 9.7 67 1027.2 5.4 SW 6.9 0.0 0.1
19:54 15.8 9.7 67 1027.2 5.4 W 6.9 0.0 0.1
19:55 15.8 9.7 67 1027.1 6.0 S 7.6 0.0 0.1
19:56 15.8 9.7 67 1027.0 6.9 SW 7.6 0.0 0.1
19:57 15.8 9.9 68 1027.1 6.0 SW 7.6 0.0 0.1
19:58 15.7 9.8 68 1027.1 6.9 SW 7.6 0.0 0.1
19:59 15.7 9.8 68 1027.0 5.4 W 7.6 0.0 0.1
20:01 15.7 9.8 68 1027.0 5.4 W 7.6 0.0 0.1
20:02 15.7 9.8 68 1027.1 5.4 W 7.6 0.0 0.1
20:03 15.7 9.8 68 1027.2 5.4 W 7.6 0.0 0.1
20:04 15.7 9.8 68 1027.3 5.4 W 7.6 0.0 0.1
20:05 15.7 9.8 68 1027.2 5.4 W 6.9 0.0 0.1
20:06 15.6 9.7 68 1027.1 6.0 S 6.9 0.0 0.1
20:07 15.6 9.7 68 1027.2 3.8 S 6.9 0.0 0.1
20:08 15.5 9.8 69 1027.1 4.5 SW 6.9 0.0 0.1
20:09 15.5 9.8 69 1027.2 3.1 SW 6.0 0.0 0.1
20:10 15.5 9.8 69 1027.2 4.5 SW 6.0 0.0 0.1
20:11 15.4 9.7 69 1027.2 3.1 SW 6.0 0.0 0.1
20:12 15.4 9.7 69 1027.1 3.1 SW 6.0 0.0 0.1
20:13 15.4 9.7 69 1027.2 3.8 SW 6.0 0.0 0.1
20:15 15.3 9.7 69 1027.2 2.2 SW 6.0 0.0 0.1
20:16 15.3 9.7 69 1027.2 2.2 SW 6.0 0.0 0.1
20:17 15.3 9.7 69 1027.3 3.1 SW 6.0 0.0 0.1
20:18 15.3 9.7 69 1027.2 2.2 SW 6.0 0.0 0.1
20:19 15.3 9.7 69 1027.3 3.1 SW 6.0 0.0 0.1
20:20 15.2 9.8 70 1027.2 2.2 SW 6.0 0.0 0.1
20:21 15.2 9.8 70 1027.3 3.1 SW 4.5 0.0 0.1
20:22 15.2 9.8 70 1027.2 2.2 SW 4.5 0.0 0.1
20:23 15.2 9.8 70 1027.3 1.6 SW 4.5 0.0 0.1
20:24 15.2 9.8 70 1027.3 1.6 SW 3.1 0.0 0.1
20:25 15.1 9.7 70 1027.4 2.2 SW 3.1 0.0 0.1
20:26 15.1 9.7 70 1027.4 2.2 SW 3.1 0.0 0.1
20:27 15.1 9.7 70 1027.2 2.2 S 3.1 0.0 0.1
20:29 15.0 9.6 70 1027.3 2.2 S 3.1 0.0 0.1
20:30 15.0 9.6 70 1027.3 2.2 S 3.1 0.0 0.1
20:31 15.0 9.6 70 1027.4 2.2 S 3.1 0.0 0.1
20:32 14.9 9.5 70 1027.3 2.2 SW 2.2 0.0 0.1
20:33 14.9 9.5 70 1027.4 2.2 S 2.2 0.0 0.1
20:34 14.9 9.7 71 1027.3 1.6 SW 2.2 0.0 0.1
20:35 14.9 9.7 71 1027.4 2.2 SW 2.2 0.0 0.1
20:36 14.8 9.6 71 1027.5 1.6 S 2.2 0.0 0.1
20:37 14.8 9.6 71 1027.4 1.6 S 2.2 0.0 0.1
20:38 14.8 9.6 71 1027.4 1.6 SW 2.2 0.0 0.1
20:39 14.7 9.5 71 1027.4 0.7 SW 2.2 0.0 0.1
20:40 14.7 9.5 71 1027.5 0.7 SW 2.2 0.0 0.1
20:41 14.7 9.5 71 1027.4 1.6 SE 2.2 0.0 0.1
20:42 14.7 9.5 71 1027.5 1.6 S 2.2 0.0 0.1
20:44 14.6 9.4 71 1027.3 1.6 E 2.2 0.0 0.1
20:45 14.6 9.4 71 1027.4 0.7 E 2.2 0.0 0.1
20:46 14.6 9.4 71 1027.4 1.6 E 1.6 0.0 0.1
20:47 14.6 9.6 72 1027.4 1.6 E 1.6 0.0 0.1
20:48 14.6 9.6 72 1027.5 0.0 E 1.6 0.0 0.1
20:49 14.6 9.6 72 1027.4 0.7 E 1.6 0.0 0.1
20:50 14.5 9.5 72 1027.3 1.6 E 1.6 0.0 0.1
20:51 14.5 9.5 72 1027.4 1.6 E 1.6 0.0 0.1
20:52 14.5 9.5 72 1027.6 1.6 E 1.6 0.0 0.1
20:53 14.5 9.5 72 1027.5 1.6 E 1.6 0.0 0.1
20:54 14.4 9.4 72 1027.5 1.6 E 1.6 0.0 0.1
20:55 14.4 9.4 72 1027.3 0.7 E 1.6 0.0 0.1
20:56 14.4 9.4 72 1027.4 1.6 SE 1.6 0.0 0.1
20:58 14.4 9.4 72 1027.4 2.2 E 2.2 0.0 0.1
20:59 14.4 9.4 72 1027.4 2.2 E 2.2 0.0 0.1
21:00 14.3 9.3 72 1027.4 2.2 E 2.2 0.0 0.1
21:01 14.3 9.3 72 1027.4 2.2 E 2.2 0.0 0.1
21:02 14.3 9.3 72 1027.3 2.2 SE 2.2 0.0 0.1
21:03 14.3 9.3 72 1027.4 1.6 SE 2.2 0.0 0.1
21:04 14.3 9.5 73 1027.6 2.2 SE 2.2 0.0 0.1
21:05 14.3 9.5 73 1027.4 1.6 SE 2.2 0.0 0.1
21:06 14.2 9.4 73 1027.4 2.2 SE 2.2 0.0 0.1
21:07 14.2 9.4 73 1027.3 1.6 SE 2.2 0.0 0.1
21:08 14.2 9.4 73 1027.5 1.6 SE 2.2 0.0 0.1
21:09 14.1 9.3 73 1027.7 0.7 SE 2.2 0.0 0.1
21:10 14.1 9.3 73 1027.6 0.0 SE 2.2 0.0 0.1
21:11 14.1 9.3 73 1027.5 0.0 SE 2.2 0.0 0.1
21:12 14.1 9.3 73 1027.8 0.0 SE 2.2 0.0 0.1
21:14 14.0 9.2 73 1027.7 0.0 SE 2.2 0.0 0.1
21:15 14.0 9.2 73 1027.7 0.0 SE 2.2 0.0 0.1
21:16 14.0 9.2 73 1027.6 0.0 SE 2.2 0.0 0.1
21:17 14.0 9.2 73 1027.5 0.0 SE 1.6 0.0 0.1
21:18 14.0 9.2 73 1027.7 0.0 SE 1.6 0.0 0.1
21:19 14.0 9.2 73 1027.7 0.0 SE 1.6 0.0 0.1
21:20 13.9 9.1 73 1027.7 1.6 E 1.6 0.0 0.1
21:21 13.9 9.1 73 1027.6 1.6 E 1.6 0.0 0.1
21:22 13.9 9.1 73 1027.7 2.2 E 2.2 0.0 0.1
21:23 13.9 9.1 73 1027.8 2.2 SE 2.2 0.0 0.1
21:25 13.9 9.1 73 1027.7 1.6 SE 2.2 0.0 0.1
21:26 13.8 9.0 73 1027.7 0.7 NE 2.2 0.0 0.1
21:27 13.8 9.0 73 1027.7 1.6 SE 2.2 0.0 0.1
21:28 13.8 9.3 74 1027.8 1.6 SE 2.2 0.0 0.1
21:29 13.8 9.3 74 1027.8 0.7 SE 2.2 0.0 0.1
21:30 13.8 9.3 74 1027.7 0.7 SE 2.2 0.0 0.1
21:31 13.8 9.3 74 1027.6 0.0 SE 2.2 0.0 0.1
21:32 13.7 9.2 74 1027.6 0.7 NE 2.2 0.0 0.1
21:33 13.7 9.2 74 1027.6 1.6 NE 2.2 0.0 0.1
21:34 13.7 9.2 74 1027.7 1.6 NE 1.6 0.0 0.1
21:35 13.7 9.2 74 1027.7 0.7 NE 1.6 0.0 0.1
21:36 13.7 9.2 74 1027.7 0.7 NE 1.6 0.0 0.1
21:37 13.7 9.2 74 1027.8 0.0 NE 1.6 0.0 0.1
21:38 13.7 9.2 74 1027.7 0.7 NE 1.6 0.0 0.1
21:39 13.7 9.2 74 1027.7 0.7 E 1.6 0.0 0.1
21:40 13.7 9.2 74 1027.6 1.6 SE 1.6 0.0 0.1
21:41 13.7 9.2 74 1027.7 1.6 NE 1.6 0.0 0.1
21:42 13.6 9.1 74 1027.9 2.2 SE 2.2 0.0 0.1
21:43 13.6 9.1 74 1027.8 2.2 E 2.2 0.0 0.1
21:44 13.6 9.1 74 1027.7 2.2 SE 2.2 0.0 0.1
21:45 13.6 9.1 74 1027.9 1.6 SE 2.2 0.0 0.1
21:46 13.6 9.1 74 1027.8 1.6 E 2.2 0.0 0.1
21:47 13.6 9.1 74 1027.8 1.6 E 2.2 0.0 0.1
21:48 13.6 9.3 75 1027.7 0.7 E 2.2 0.0 0.1
21:49 13.6 9.3 75 1027.8 0.7 E 2.2 0.0 0.1
21:50 13.6 9.3 75 1027.9 1.6 E 2.2 0.0 0.1
21:51 13.6 9.3 75 1027.8 0.7 E 2.2 0.0 0.1
21:52 13.5 9.2 75 1027.8 1.6 E 2.2 0.0 0.1
21:53 13.5 9.2 75 1027.8 1.6 ENE 2.2 0.0 0.1
21:54 13.5 9.2 75 1027.9 0.7 E 1.6 0.0 0.1
21:55 13.5 9.2 75 1027.9 0.0 E 1.6 0.0 0.1
21:56 13.4 9.1 75 1027.6 0.7 NE 1.6 0.0 0.1
21:57 13.4 9.1 75 1027.9 0.7 NE 1.6 0.0 0.1
21:58 13.5 9.2 75 1027.7 0.0 NE 1.6 0.0 0.1
21:59 13.4 9.1 75 1027.7 0.0 NE 1.6 0.0 0.1
22:00 13.4 9.1 75 1027.9 0.0 NE 1.6 0.0 0.1
22:01 13.4 9.1 75 1027.9 0.0 NE 1.6 0.0 0.1
22:02 13.4 9.1 75 1027.8 0.0 NE 1.6 0.0 0.1
22:03 13.4 9.1 75 1027.9 0.0 NE 1.6 0.0 0.1
22:04 13.4 9.1 75 1028.0 0.0 NE 0.7 0.0 0.1
22:05 13.4 9.1 75 1027.8 0.0 NE 0.7 0.0 0.1
22:07 13.4 9.1 75 1027.8 0.0 NE 0.7 0.0 0.1
22:08 13.4 9.1 75 1027.8 0.0 E 0.0 0.0 0.1
22:09 13.4 9.1 75 1027.8 0.0 E 0.0 0.0 0.1
22:10 13.4 9.1 75 1028.0 0.0 E 0.0 0.0 0.1
22:11 13.4 9.1 75 1028.0 0.0 E 0.0 0.0 0.1
22:12 13.3 9.0 75 1027.9 0.0 E 0.0 0.0 0.1
22:13 13.4 9.1 75 1027.9 1.6 E 1.6 0.0 0.1
22:14 13.3 9.2 76 1027.9 1.6 E 1.6 0.0 0.1
22:15 13.3 9.2 76 1027.9 0.7 E 1.6 0.0 0.1
22:16 13.3 9.2 76 1028.0 0.7 E 1.6 0.0 0.1
22:17 13.3 9.2 76 1028.0 0.7 E 1.6 0.0 0.1
22:18 13.3 9.2 76 1028.0 0.7 NE 1.6 0.0 0.1
22:19 13.3 9.2 76 1027.9 0.7 E 1.6 0.0 0.1
22:20 13.3 9.2 76 1027.9 0.0 E 1.6 0.0 0.1
22:21 13.3 9.2 76 1027.8 1.6 E 1.6 0.0 0.1
22:22 13.3 9.2 76 1027.8 0.7 NE 1.6 0.0 0.1
22:23 13.3 9.2 76 1027.9 0.7 E 1.6 0.0 0.1
22:24 13.3 9.2 76 1027.7 0.0 E 1.6 0.0 0.1
22:26 13.3 9.2 76 1027.9 0.0 E 1.6 0.0 0.1
22:27 13.3 9.2 76 1028.0 0.0 E 1.6 0.0 0.1
22:28 13.3 9.2 76 1028.0 0.0 E 1.6 0.0 0.1
22:29 13.3 9.2 76 1027.7 0.0 E 1.6 0.0 0.1
22:30 13.3 9.2 76 1027.9 0.0 E 1.6 0.0 0.1
22:31 13.2 9.1 76 1027.9 0.0 E 0.7 0.0 0.1
22:32 13.2 9.1 76 1027.8 0.0 E 0.7 0.0 0.1
22:33 13.2 9.1 76 1027.9 0.0 E 0.7 0.0 0.1
22:34 13.2 9.1 76 1027.9 0.0 E 0.7 0.0 0.1
22:35 13.2 9.1 76 1027.9 0.0 E 0.7 0.0 0.1
22:36 13.2 9.1 76 1027.9 0.0 E 0.0 0.0 0.1
22:37 13.2 9.1 76 1027.9 0.0 E 0.0 0.0 0.1
22:38 13.2 9.1 76 1027.9 0.7 E 0.7 0.0 0.1
22:39 13.2 9.1 76 1027.8 0.0 E 0.7 0.0 0.1
22:40 13.2 9.1 76 1027.8 0.7 E 0.7 0.0 0.1
22:41 13.2 9.1 76 1027.8 0.7 NE 0.7 0.0 0.1
22:42 13.2 9.1 76 1027.8 0.0 NE 0.7 0.0 0.1
22:43 13.2 9.1 76 1027.9 0.0 NE 0.7 0.0 0.1
22:45 13.2 9.1 76 1027.8 0.0 NE 0.7 0.0 0.1
22:46 13.2 9.1 76 1027.7 0.0 NE 0.7 0.0 0.1
22:47 13.2 9.1 76 1027.7 0.0 NE 0.7 0.0 0.1
22:48 13.2 9.1 76 1027.7 0.0 NE 0.7 0.0 0.1
22:49 13.2 9.1 76 1027.8 0.0 NE 0.7 0.0 0.1
22:50 13.2 9.1 76 1027.7 0.0 NE 0.7 0.0 0.1
22:51 13.2 9.1 76 1027.7 0.0 NE 0.7 0.0 0.1
22:52 13.2 9.1 76 1027.8 0.0 NE 0.7 0.0 0.1
22:53 13.2 9.1 76 1027.7 0.0 NE 0.7 0.0 0.1
22:54 13.2 9.1 76 1027.8 0.0 NE 0.7 0.0 0.1
22:55 13.0 8.9 76 1027.8 0.0 E 0.0 0.0 0.1
22:56 13.0 8.9 76 1027.8 0.0 E 0.0 0.0 0.1
22:57 13.0 8.9 76 1027.8 0.0 E 0.0 0.0 0.1
22:58 12.9 8.8 76 1027.8 0.0 E 0.0 0.0 0.1
22:59 12.8 8.7 76 1027.7 0.0 E 0.0 0.0 0.1
23:00 12.8 8.7 76 1027.7 0.0 E 0.0 0.0 0.1
23:01 12.8 8.7 76 1027.8 0.0 E 0.0 0.0 0.1
23:02 12.8 8.7 76 1027.8 0.0 E 0.0 0.0 0.1
23:03 12.8 8.7 76 1027.7 0.0 E 0.0 0.0 0.1
23:04 12.8 8.7 76 1027.6 0.0 E 0.0 0.0 0.1
23:05 12.8 8.7 76 1027.8 0.0 E 0.0 0.0 0.1
23:06 12.8 8.7 76 1027.8 0.0 E 0.0 0.0 0.1
23:07 12.7 8.6 76 1027.9 0.7 E 0.7 0.0 0.1
23:08 12.7 8.6 76 1027.8 0.7 E 0.7 0.0 0.1
23:09 12.6 8.5 76 1027.8 0.7 E 0.7 0.0 0.1
23:10 12.6 8.5 76 1027.8 0.7 E 0.7 0.0 0.1
23:11 12.6 8.5 76 1027.9 0.7 E 0.7 0.0 0.1
23:12 12.6 8.5 76 1027.9 0.7 E 0.7 0.0 0.1
23:13 12.6 8.5 76 1027.8 0.7 E 0.7 0.0 0.1
23:14 12.6 8.5 76 1027.8 0.7 E 0.7 0.0 0.1
23:15 12.6 8.7 77 1027.8 1.6 NE 1.6 0.0 0.1
23:16 12.6 8.7 77 1027.8 1.6 E 1.6 0.0 0.1
23:17 12.6 8.7 77 1027.9 1.6 E 1.6 0.0 0.1
23:18 12.6 8.7 77 1027.8 1.6 E 1.6 0.0 0.1
23:19 12.6 8.7 77 1027.9 1.6 NE 1.6 0.0 0.1
23:20 12.6 8.7 77 1027.9 1.6 NE 1.6 0.0 0.1
23:21 12.6 8.7 77 1027.9 1.6 E 1.6 0.0 0.1
23:22 12.6 8.7 77 1027.8 0.7 NE 1.6 0.0 0.1
23:23 12.6 8.7 77 1027.8 0.7 NE 1.6 0.0 0.1
23:24 12.6 8.7 77 1027.9 0.7 NE 1.6 0.0 0.1
23:25 12.6 8.7 77 1027.9 1.6 SE 1.6 0.0 0.1
23:26 12.6 8.7 77 1027.8 1.6 SE 1.6 0.0 0.1
23:27 12.6 8.7 77 1027.7 1.6 SE 1.6 0.0 0.1
23:28 12.6 8.7 77 1027.9 1.6 SE 1.6 0.0 0.1
23:29 12.7 9.0 78 1027.8 0.0 SE 1.6 0.0 0.1
23:30 12.7 9.0 78 1027.8 0.0 SE 1.6 0.0 0.1
23:31 12.7 9.0 78 1027.6 0.0 SE 1.6 0.0 0.1
23:32 12.6 8.9 78 1027.7 0.0 SE 1.6 0.0 0.1
23:33 12.6 8.9 78 1027.6 0.0 SE 1.6 0.0 0.1
23:34 12.6 8.9 78 1027.8 0.0 SE 1.6 0.0 0.1
23:35 12.6 8.7 77 1027.7 0.7 SE 1.6 0.0 0.1
23:36 12.6 8.7 77 1027.7 0.7 SE 1.6 0.0 0.1
23:37 12.5 8.6 77 1027.9 0.7 SE 1.6 0.0 0.1
23:38 12.5 8.6 77 1027.7 0.7 SE 1.6 0.0 0.1
23:39 12.4 8.5 77 1027.6 0.0 SE 0.7 0.0 0.1
23:40 12.4 8.5 77 1027.8 0.0 SE 0.7 0.0 0.1
23:41 12.4 8.5 77 1027.7 0.0 SE 0.7 0.0 0.1
23:42 12.3 8.4 77 1027.7 0.7 SE 0.7 0.0 0.1
23:43 12.3 8.4 77 1027.7 0.7 SE 0.7 0.0 0.1
23:44 12.3 8.4 77 1027.7 0.7 SE 0.7 0.0 0.1
23:45 12.3 8.4 77 1027.7 0.7 SE 0.7 0.0 0.1
23:46 12.3 8.4 77 1027.7 0.7 SE 0.7 0.0 0.1
23:47 12.3 8.4 77 1027.7 0.7 SE 0.7 0.0 0.1
23:48 12.3 8.4 77 1027.7 0.7 SE 0.7 0.0 0.1
23:49 12.3 8.4 77 1027.7 0.7 SE 0.7 0.0 0.1
23:50 12.2 8.5 78 1027.6 0.0 SE 0.7 0.0 0.1
23:51 12.2 8.5 78 1027.6 0.0 SE 0.7 0.0 0.1
23:52 12.2 8.5 78 1027.6 1.6 SE 1.6 0.0 0.1
23:53 12.2 8.5 78 1027.6 0.7 SE 1.6 0.0 0.1
23:54 12.2 8.5 78 1027.6 0.7 SE 1.6 0.0 0.1
23:55 12.2 8.5 78 1027.6 0.0 SE 1.6 0.0 0.1
23:56 12.2 8.5 78 1027.7 0.0 SE 1.6 0.0 0.1
23:57 12.2 8.5 78 1027.7 0.0 SE 1.6 0.0 0.1
23:58 12.2 8.5 78 1027.5 0.0 SE 1.6 0.0 0.1
23:59 12.2 8.5 78 1027.6 0.0 SE 1.6 0.0 0.1

UK - WEATHER STATION TOPSITES - UK World Weather Websites

This is a private weather station, never base important decisions or events on data from this weather station. Although every effort has been made to make the data as accurate as possible it does not meet MetOffice standards. It is proved as a guide of local weather conditions. We accept no liability for any loss which may arise from use of the data.

Copyright © Carnkie Weather 2009 - 2019.